GFSWCAN_925_thetae_120.txt.gz
Theta_e
308 310 309 308 308 307 308 306 307 308 308 307 307 306 305 302 298 301 302 301 300 297 297 301 301 302 300 298 299 297 299 299 300 302 302 300 301 299 301 298 302 304 303 304 305 306 304 300 301 304 298 298 300 299
308 310 309 308 308 307 307 304 307 308 308 308 307 307 306 305 303 300 300 301 301 298 298 300 301 301 301 299 297 297 297 299 300 299 299 297 302 296 298 300 297 301 301 302 303 303 300 300 300 300 298 298 298 298
307 310 310 309 308 308 308 304 306 307 308 307 308 307 306 306 305 303 301 300 300 297 297 298 300 299 299 300 300 301 298 299 299 297 297 299 302 297 300 298 298 297 296 300 301 300 300 299 298 298 298 298 297 297
307 309 310 309 308 308 308 304 304 306 307 307 307 307 306 306 305 303 300 299 300 298 301 299 299 298 298 298 299 300 299 299 298 297 300 300 302 298 299 298 297 297 297 298 298 298 299 300 298 297 297 297 297 295
306 309 310 310 308 308 308 304 303 305 305 305 307 306 306 305 305 302 297 300 299 299 301 299 297 297 297 297 298 299 299 298 299 301 300 303 299 300 297 298 299 296 299 299 300 297 298 299 298 297 297 297 297 296
307 309 309 310 309 308 307 303 303 303 302 303 305 305 305 305 305 301 298 297 299 299 295 299 295 296 297 297 297 297 297 296 297 299 300 298 297 300 300 302 301 298 297 298 300 298 298 298 297 296 295 295 296 295
308 308 309 310 310 309 305 303 302 301 301 301 302 304 304 304 304 301 300 299 299 299 296 298 296 295 296 295 294 294 295 294 296 297 298 299 299 301 300 303 302 299 300 299 297 296 296 297 296 295 293 294 295 295
307 308 309 310 310 309 306 302 301 300 300 301 303 303 303 304 302 301 299 298 298 298 295 292 294 296 295 295 296 292 295 294 295 296 296 299 298 298 302 302 301 300 298 298 297 296 295 295 293 293 292 292 293 294
309 309 310 310 310 308 303 300 299 300 301 301 303 303 302 301 300 298 297 297 297 296 296 298 297 295 293 294 293 294 293 296 293 298 297 297 299 301 301 300 301 299 298 296 294 292 292 292 292 290 290 291 292 292
309 309 309 309 309 303 300 299 300 300 302 303 302 301 300 298 297 297 296 294 292 291 291 299 296 298 293 294 295 295 294 296 292 297 295 298 299 298 298 297 297 296 294 292 292 293 292 292 291 291 290 290 290 290
308 308 308 305 301 299 299 299 300 301 302 302 299 296 297 296 296 294 295 297 297 299 296 296 296 294 292 295 296 295 294 298 300 294 300 298 299 298 296 296 294 292 291 289 289 290 289 289 289 289 291 290 290 290
302 301 299 298 298 298 299 300 302 302 301 300 299 297 296 294 297 296 294 297 299 300 295 294 295 293 293 291 296 295 295 297 300 293 299 299 295 295 295 296 295 291 290 289 290 289 290 291 291 290 290 290 291 291
298 297 296 296 296 296 298 301 302 301 300 299 297 296 293 294 298 297 293 298 299 296 290 292 293 293 292 292 293 294 298 298 291 297 297 295 294 293 293 293 292 292 291 290 291 292 292 292 293 291 290 292 292 291
294 295 295 296 295 296 296 300 300 299 299 296 295 297 294 295 292 292 293 292 291 289 288 290 290 292 292 294 294 297 296 294 298 299 295 291 291 292 292 291 291 292 291 289 291 292 291 291 291 292 293 293 292 291
295 295 294 294 294 296 298 300 300 299 297 295 296 296 291 291 287 291 288 290 288 289 290 291 290 292 291 293 296 296 298 299 298 295 292 288 291 292 292 291 291 291 291 290 292 292 292 291 291 291 292 293 292 290
294 294 293 294 293 293 294 297 298 297 294 293 294 293 291 291 290 289 290 292 288 291 289 291 290 288 292 295 298 299 299 297 294 292 289 287 291 291 290 290 290 292 291 291 291 292 292 291 291 292 292 291 291 290
293 292 293 293 293 296 297 296 295 292 292 292 294 292 291 293 293 290 292 292 290 293 295 292 292 294 290 295 295 292 294 293 291 289 287 289 289 289 288 289 290 291 290 291 291 291 291 292 291 289 287 291 291 291
292 292 293 293 294 295 293 293 290 288 287 291 293 290 292 292 291 292 290 289 292 293 292 295 286 285 290 294 291 291 289 287 287 288 289 289 290 291 292 291 292 291 290 290 291 291 290 289 287 288 291 291 292 291
293 293 293 294 293 293 290 291 291 287 287 288 288 287 289 290 290 291 290 291 290 289 287 287 286 288 292 289 288 286 287 287 292 292 291 291 291 291 291 291 291 290 289 290 290 290 292 292 291 291 292 291 290 291
292 293 294 294 293 290 288 290 290 289 288 286 286 287 286 287 287 287 288 289 290 290 292 292 290 292 290 289 288 290 291 291 290 291 291 291 292 291 290 290 290 291 291 291 291 292 292 291 291 291 291 290 289 290
293 293 294 293 293 291 285 287 290 289 288 288 288 287 285 286 284 284 287 285 290 292 287 289 291 292 292 292 293 292 292 291 291 291 291 291 291 291 291 292 292 291 291 291 291 291 292 291 291 292 291 291 291 291
292 292 292 291 289 288 286 290 286 285 283 281 284 284 284 286 287 287 278 279 281 288 289 291 291 291 291 291 291 291 291 291 291 291 292 292 291 290 290 291 291 290 291 291 291 291 291 291 291 291 291 291 291 291
292 292 291 290 285 288 285 289 290 289 288 282 286 287 285 286 282 278 280 280 284 285 290 290 290 291 290 291 291 290 290 290 290 290 290 290 291 290 290 290 290 290 290 290 291 291 291 291 292 292 291 291 291 290
292 291 290 289 281 285 284 289 289 287 286 285 284 283 280 280 274 277 280 281 288 287 288 288 289 289 289 288 288 289 289 290 289 289 289 289 289 289 290 290 290 290 290 290 291 291 291 291 291 291 291 290 289 289
291 291 290 290 280 286 289 288 283 288 287 286 284 278 279 273 277 276 279 283 286 288 288 288 288 288 288 289 288 289 289 289 288 288 288 288 288 289 289 289 289 290 290 290 290 291 291 291 291 290 290 290 288 289
291 291 291 289 285 285 284 285 287 283 278 279 281 276 272 274 276 283 282 288 288 288 288 288 288 288 288 288 288 288 288 289 288 287 288 288 288 288 288 288 289 290 290 290 291 291 291 291 291 290 290 289 289 290
292 291 290 284 285 283 283 281 279 278 278 280 279 277 278 283 283 283 286 284 287 288 289 289 288 288 288 288 289 289 288 288 288 288 289 288 288 288 289 289 289 289 290 290 290 290 290 290 290 290 290 289 289 288
290 286 287 285 284 281 281 278 279 280 281 280 279 278 280 281 286 288 286 289 289 289 288 288 288 288 288 288 288 288 288 288 288 288 287 287 288 288 288 288 289 289 289 289 289 290 290 289 289 289 288 288 288 288
287 283 284 284 283 283 281 282 281 282 284 281 281 286 285 288 289 288 289 289 289 288 287 287 288 288 288 287 287 286 286 286 286 286 286 286 286 287 288 288 288 288 288 288 289 289 289 289 289 288 289 288 288 288
284 283 281 279 282 282 282 282 281 282 282 286 286 284 287 287 288 288 288 288 288 287 288 288 288 287 287 287 287 287 287 287 286 286 287 287 287 287 287 287 287 288 287 287 288 288 288 287 287 287 287 287 286 285
282 281 281 279 281 280 285 282 279 285 280 278 283 284 287 288 288 288 288 288 287 287 287 287 287 287 287 287 287 287 287 288 287 287 287 287 287 287 287 287 287 287 287 287 287 287 286 285 285 285 284 283 283 284
280 282 281 279 278 277 274 277 275 276 276 278 286 281 286 284 286 287 288 288 288 287 287 288 287 287 288 288 288 288 288 288 288 288 288 288 288 287 287 287 287 287 287 287 287 287 286 285 284 283 282 282 283 283
269 268 267 273 275 276 273 280 275 274 273 279 286 287 287 286 285 283 289 289 289 288 288 288 288 288 288 288 287 288 288 288 288 288 288 288 288 288 288 287 287 287 286 286 286 285 285 284 283 283 283 282 282 282

GFSWCAN_925_thetae_123.txt.gz
Theta_e
305 306 307 310 309 308 307 308 306 307 308 307 307 306 305 305 303 301 301 301 299 296 296 300 300 300 299 297 298 296 299 298 299 301 300 300 300 298 299 298 302 303 303 304 304 306 303 299 301 304 298 298 298 298
305 306 307 309 309 308 307 307 305 306 307 307 307 307 306 305 305 303 300 301 301 298 297 299 300 300 300 299 296 296 297 298 299 298 298 297 301 296 297 299 297 301 301 302 302 303 299 300 302 299 298 298 297 297
305 306 307 309 309 308 308 308 305 306 307 308 307 307 306 305 305 304 302 300 300 297 297 297 299 299 299 300 300 301 297 298 298 296 296 298 301 297 299 298 297 296 296 300 300 298 300 299 297 298 298 296 295 296
306 305 306 308 310 309 308 308 306 305 307 307 307 306 305 304 305 303 300 300 300 297 300 298 298 298 298 298 299 299 299 299 297 297 299 299 301 297 298 298 297 297 296 297 298 298 299 297 298 297 296 296 295 295
306 306 305 306 310 309 308 308 306 304 306 306 306 306 305 305 304 303 298 299 299 299 301 298 297 296 297 297 298 299 299 298 298 300 300 302 298 298 297 297 298 295 297 299 300 297 300 300 298 297 296 295 294 294
307 306 305 306 309 309 308 308 305 303 303 303 303 304 304 304 304 303 297 297 299 300 296 299 294 295 296 297 297 296 297 295 296 299 299 297 297 299 300 302 300 297 296 297 300 297 296 297 296 296 294 294 293 294
307 306 305 305 309 310 309 308 305 303 302 302 302 304 304 303 303 302 300 299 301 300 295 297 295 294 295 295 293 293 294 293 295 296 298 297 298 299 299 302 301 298 299 299 297 296 296 296 295 293 293 292 292 293
307 307 306 306 308 309 309 308 305 302 301 301 302 303 303 302 302 300 299 299 299 298 294 291 294 295 295 294 295 291 294 293 294 296 295 298 296 296 301 299 300 300 297 297 296 294 294 293 292 292 292 290 291 292
307 307 306 306 308 309 309 308 304 301 301 301 303 302 302 301 300 298 297 297 297 297 295 298 298 295 293 293 293 294 292 295 292 296 296 297 298 300 300 299 300 299 298 297 293 291 291 291 290 290 289 290 290 291
307 306 306 307 308 309 310 307 302 300 301 302 302 302 298 298 297 297 296 294 292 292 292 299 296 298 293 294 295 295 294 296 293 297 294 298 299 297 297 297 296 296 294 292 294 294 292 291 290 290 290 289 288 289
307 307 307 307 308 309 309 304 300 301 302 302 300 299 296 296 296 293 295 296 295 298 297 296 296 295 291 295 296 295 294 296 301 295 300 300 299 298 295 294 292 291 291 290 290 289 288 288 288 289 290 290 290 291
307 307 308 308 308 308 306 301 301 302 302 301 299 297 296 295 297 294 292 296 297 296 294 296 295 293 292 291 296 295 295 297 299 293 299 299 295 295 294 294 293 291 292 291 291 289 290 290 291 290 290 290 291 292
307 307 308 307 307 302 301 300 301 301 300 300 297 295 295 293 298 296 291 297 298 297 289 293 292 292 291 292 293 295 299 299 291 298 298 294 294 293 292 292 292 292 292 291 291 292 292 292 292 291 291 292 292 291
305 304 303 301 300 300 300 302 301 299 299 296 297 298 295 296 291 292 291 291 291 288 288 292 289 291 291 293 293 293 296 295 298 298 295 292 292 292 291 290 290 291 290 289 289 291 291 290 290 291 292 292 291 290
296 296 297 297 299 301 299 299 299 298 297 296 296 297 295 291 289 291 290 291 290 289 290 291 289 292 292 294 296 296 297 299 298 294 292 289 290 291 291 290 290 289 289 289 291 290 290 290 289 289 291 291 291 290
294 294 294 294 296 296 298 299 298 297 294 294 293 294 292 293 291 291 288 288 288 290 288 291 290 291 294 296 297 298 298 296 293 290 288 287 290 290 289 289 289 290 290 290 290 290 290 289 289 290 291 290 290 290
292 293 293 293 294 297 296 295 295 292 292 291 291 292 292 292 293 291 291 292 291 295 297 295 295 296 290 295 295 291 294 292 290 287 285 288 289 289 288 288 288 288 288 289 289 289 289 290 290 288 287 290 290 290
291 293 292 294 294 295 293 293 290 289 292 291 293 291 293 292 292 292 290 288 290 293 291 290 285 288 291 293 291 290 286 284 285 288 289 288 287 288 288 288 290 290 290 290 289 289 289 288 287 288 289 289 290 290
292 293 293 294 294 292 290 291 289 288 287 289 289 288 290 291 290 290 289 289 289 289 287 290 286 290 291 288 288 285 285 285 289 291 289 290 290 289 290 290 290 289 288 288 289 289 290 290 290 290 290 290 290 290
293 294 294 293 292 290 288 291 290 288 288 288 287 288 288 288 286 287 288 288 289 289 291 293 291 290 288 290 288 290 291 290 288 289 290 290 290 290 289 289 289 290 289 290 290 290 290 290 290 290 290 290 290 290
294 294 294 293 292 290 286 289 289 286 287 288 286 288 286 287 288 284 284 286 284 283 287 290 290 290 290 291 291 291 290 290 289 290 290 290 290 290 290 290 290 289 289 290 290 290 290 290 290 290 290 290 290 290
293 293 292 291 289 288 284 287 285 285 285 281 286 285 286 286 287 287 280 282 288 286 288 289 289 289 289 289 290 290 290 290 289 289 290 290 290 290 289 290 289 289 289 289 289 289 290 290 290 290 290 290 290 290
292 291 290 288 286 286 283 288 289 289 289 283 286 287 287 286 281 279 278 280 283 284 288 289 290 290 289 290 289 289 289 289 289 289 289 289 289 289 289 289 289 289 289 289 289 289 289 290 290 290 290 290 290 290
291 290 288 288 281 288 287 288 288 285 287 286 286 284 282 280 278 279 280 280 283 284 285 286 287 287 287 287 287 288 288 289 288 288 288 288 287 288 288 288 288 288 288 289 289 289 289 289 290 290 290 289 289 289
291 291 290 287 277 285 287 286 285 287 286 286 283 280 277 271 276 278 279 281 280 285 286 285 285 286 287 287 288 288 288 288 287 287 288 288 287 287 287 287 287 288 288 288 288 288 288 289 289 289 289 289 288 289
291 290 288 284 279 284 284 283 284 283 280 283 282 273 269 273 274 281 280 280 285 285 286 286 287 287 287 287 287 287 288 288 288 286 287 288 287 287 287 287 287 287 288 287 287 288 288 288 288 289 289 289 289 290
292 291 289 284 284 282 281 280 280 279 278 281 279 278 278 279 281 282 282 280 284 287 289 288 288 287 287 288 288 288 288 288 288 288 288 288 288 288 287 287 287 287 288 288 288 287 287 288 288 288 288 288 288 288
291 288 288 285 281 278 282 281 281 282 284 281 279 277 280 281 284 285 282 289 289 289 288 288 287 287 287 287 287 287 287 287 287 287 287 287 287 287 287 287 287 287 287 287 287 288 287 287 288 288 288 287 287 287
288 284 286 285 282 280 283 283 283 282 284 282 284 282 280 281 284 281 288 288 288 288 285 286 287 287 287 287 287 286 286 285 284 285 284 285 286 286 286 287 286 286 286 287 287 288 288 288 288 288 288 287 287 287
285 281 282 282 284 286 286 285 286 284 282 283 283 282 285 286 288 289 288 287 287 287 287 287 287 287 286 286 286 286 286 286 286 285 285 286 286 287 287 287 287 286 286 286 286 286 287 287 287 287 287 286 285 284
281 282 284 283 285 284 286 279 278 284 277 275 275 282 287 287 288 288 288 287 287 287 287 286 286 286 286 285 285 285 285 287 287 287 287 287 287 287 287 287 287 286 286 286 286 285 285 285 285 285 283 283 284 283
281 285 286 284 282 276 272 278 275 278 275 273 285 275 274 277 280 287 288 288 287 286 286 287 285 285 286 286 287 287 287 287 287 287 287 287 287 287 287 287 287 287 287 286 286 285 284 284 283 283 282 282 282 283
274 271 270 275 276 277 272 276 272 272 270 271 277 281 281 281 282 282 289 289 289 288 287 288 288 288 288 288 288 288 288 288 288 287 285 284 284 285 286 287 287 287 286 286 285 284 284 284 283 283 283 282 282 282

GFSWCAN_925_thetae_126.txt.gz
Theta_e
307 306 306 305 307 309 308 308 307 307 306 307 307 306 306 305 305 301 301 301 300 302 300 300 301 302 302 302 304 301 305 304 304 305 304 305 304 303 303 303 307 308 309 309 309 310 311 303 303 305 302 303 303 302
307 307 306 305 306 308 309 308 307 306 306 308 307 307 306 306 306 304 301 301 301 301 300 299 300 300 299 299 300 300 301 302 305 304 303 302 304 301 303 305 300 306 307 307 308 308 303 302 303 301 301 301 301 299
308 307 306 305 306 308 310 308 307 307 305 307 307 307 307 305 305 304 302 300 299 301 299 300 301 298 299 299 299 304 301 300 300 300 303 304 305 303 305 304 301 300 300 305 303 303 303 303 300 301 300 299 298 297
308 307 306 305 306 307 309 308 308 307 305 307 306 306 305 304 304 304 300 300 300 300 305 302 298 297 297 298 298 299 300 299 300 301 304 304 304 300 303 301 302 301 300 303 303 301 301 299 301 300 299 298 297 296
310 307 307 306 305 307 309 309 308 308 304 306 306 306 305 304 304 303 299 299 300 301 306 302 297 296 297 297 298 299 300 302 303 304 305 306 303 301 301 301 304 299 302 303 304 302 304 304 300 298 297 297 296 296
309 308 307 306 305 306 307 310 308 307 304 306 305 305 305 304 304 302 301 298 300 300 303 306 296 296 296 296 297 297 298 299 301 304 304 302 299 303 305 306 303 300 299 300 303 300 300 300 298 297 296 296 295 295
309 309 307 306 306 305 306 309 308 307 304 304 303 304 304 304 303 302 302 299 301 300 301 305 302 296 295 295 295 297 296 298 300 302 302 302 302 303 304 306 303 301 301 301 300 298 298 297 297 295 294 294 293 293
309 309 308 306 306 305 306 308 308 307 303 303 302 303 303 302 302 300 299 299 299 298 297 303 303 298 294 298 299 294 299 299 299 300 299 302 300 301 304 303 301 301 299 299 297 295 296 294 295 295 293 293 295 295
309 309 308 307 306 305 305 307 309 305 303 302 303 303 302 301 300 298 297 297 298 298 302 300 305 306 295 296 296 297 296 301 296 300 300 300 302 304 304 303 302 300 298 298 295 295 295 295 295 295 294 295 295 295
309 308 308 307 306 305 305 306 309 304 302 302 303 301 300 298 297 297 295 297 297 296 296 300 298 301 297 297 298 299 297 300 302 300 297 299 302 300 300 300 299 298 296 294 296 296 295 295 295 294 294 294 294 294
308 308 308 307 306 306 306 307 306 302 302 302 300 300 296 296 296 295 299 299 297 299 298 298 298 299 294 301 301 297 300 299 302 300 301 301 301 300 297 297 296 293 293 292 293 292 292 292 292 292 293 293 293 293
308 308 308 307 307 306 306 307 303 302 302 301 298 297 296 296 297 299 297 297 297 299 297 297 297 297 295 294 299 297 300 298 302 297 299 301 300 297 295 293 292 293 293 293 292 292 292 292 292 292 292 292 293 293
308 308 308 307 306 306 307 304 302 301 300 299 297 297 298 297 299 299 296 298 299 298 295 295 297 296 294 295 297 298 300 300 295 298 300 300 296 295 295 294 294 293 293 293 293 293 293 292 292 291 292 292 292 292
308 307 306 305 306 306 306 302 301 299 298 295 298 298 300 298 298 297 295 297 295 295 294 295 295 297 294 297 296 298 297 296 298 299 299 298 296 295 294 294 294 294 293 292 292 292 292 291 291 291 291 291 291 291
308 307 306 306 306 306 303 301 299 298 294 297 297 299 298 295 292 293 292 294 292 293 294 294 294 296 296 296 297 297 297 299 299 300 298 295 294 294 294 293 293 293 292 292 291 291 290 290 290 290 290 290 290 290
307 306 304 305 304 302 299 297 295 294 292 294 294 295 293 296 294 294 294 295 290 293 292 295 295 297 298 299 298 299 299 299 299 297 295 293 293 292 292 292 292 291 291 291 290 290 290 290 290 290 290 290 290 289
300 295 300 301 299 298 296 294 292 293 295 294 295 294 294 295 296 294 293 294 291 296 299 297 298 298 293 297 297 297 298 298 296 295 292 292 293 293 292 291 290 290 289 289 289 289 289 290 289 289 289 290 290 290
293 295 295 294 293 293 291 292 291 293 294 293 294 294 294 293 294 293 292 292 295 296 296 297 291 294 296 295 296 295 294 293 292 293 293 292 291 291 290 290 290 289 289 289 289 289 288 287 288 289 290 290 291 291
292 292 292 291 291 291 291 291 289 290 290 291 290 290 292 292 291 291 291 290 289 290 291 292 293 294 295 292 294 294 292 291 292 292 291 290 289 289 290 289 289 289 288 289 289 290 290 290 290 290 290 290 290 290
292 292 292 291 291 290 291 291 289 290 291 290 289 290 290 290 288 289 290 290 291 292 292 292 293 293 292 293 292 293 292 291 290 291 291 291 291 290 289 289 290 290 290 290 290 290 290 290 290 290 290 290 290 291
293 292 292 292 291 289 289 290 289 288 287 289 288 289 288 287 289 288 288 289 290 289 290 291 291 291 291 291 291 290 290 290 290 290 291 291 291 290 290 290 290 290 289 290 290 290 290 290 290 290 290 290 290 290
293 293 292 291 288 287 287 286 288 287 286 286 287 287 287 288 289 288 285 288 288 289 289 290 290 291 291 290 289 289 289 289 289 289 289 290 290 290 290 290 290 290 290 290 290 290 290 289 289 289 290 290 290 290
292 291 289 288 287 286 287 287 288 289 289 287 286 288 288 287 284 282 285 285 287 286 288 289 290 290 289 289 289 289 289 288 289 289 289 289 289 289 289 289 289 289 289 289 289 289 289 289 289 289 289 290 289 289
291 289 287 286 283 285 287 289 287 287 287 287 287 286 285 283 281 283 285 285 286 286 286 287 288 288 288 287 287 288 288 288 288 288 288 288 288 288 288 288 288 288 288 288 288 288 288 288 288 288 288 289 289 289
288 287 286 285 280 285 284 288 286 287 287 287 285 283 282 277 283 283 283 283 283 286 288 287 286 287 288 288 288 288 288 288 288 288 288 288 288 288 288 287 287 287 287 287 288 287 288 288 288 288 288 288 288 288
290 288 290 285 282 284 284 284 284 284 286 285 283 276 275 279 280 285 284 284 286 287 288 287 287 287 287 287 287 288 288 288 287 287 287 288 288 288 288 288 288 288 288 287 287 287 287 287 287 287 287 287 288 288
291 289 285 284 283 282 282 281 281 280 281 281 279 278 279 281 283 284 283 283 286 287 289 289 288 287 288 288 288 288 288 287 287 287 288 288 287 287 287 287 287 287 287 287 287 287 287 287 287 287 287 287 287 287
291 288 285 282 281 278 282 279 280 280 281 280 279 279 281 283 286 285 284 289 289 290 289 289 289 287 287 288 288 287 287 287 287 286 286 286 286 286 286 286 286 286 286 286 287 287 287 286 286 286 286 287 287 287
286 286 286 283 280 280 281 283 282 282 283 281 284 284 282 282 282 285 288 289 289 287 286 287 288 288 287 287 286 286 286 285 285 284 284 285 286 286 286 286 286 286 286 286 286 286 286 286 286 287 287 287 287 287
285 285 286 284 286 285 284 283 282 281 282 284 284 283 284 285 288 289 289 288 287 287 288 288 288 287 287 286 286 286 286 286 285 285 286 286 287 287 287 287 287 287 286 286 286 286 286 286 286 286 286 286 285 285
281 281 283 284 285 284 285 282 279 284 278 278 275 282 287 286 288 288 288 288 288 287 287 286 286 286 286 286 286 285 285 286 286 287 286 286 286 286 286 287 287 287 287 287 286 285 285 285 285 285 284 283 283 284
278 279 282 280 280 277 273 276 275 279 275 275 287 276 275 278 280 283 288 288 286 284 286 287 285 285 287 286 286 286 286 286 286 286 287 287 287 286 286 285 284 284 285 286 287 286 286 284 284 284 282 282 282 282
274 271 268 272 275 275 272 275 272 274 270 270 276 278 280 282 283 283 288 288 288 288 287 288 288 288 289 288 288 288 287 287 287 287 287 288 287 285 285 284 282 282 283 285 286 286 285 284 283 282 282 281 282 282

GFSWCAN_925_thetae_129.txt.gz
Theta_e
308 306 306 306 306 306 306 309 309 308 307 306 307 307 306 306 305 302 302 302 304 308 304 302 303 305 305 305 307 306 307 306 307 308 306 307 306 305 305 307 309 310 311 311 310 311 313 305 304 307 306 305 304 303
309 308 307 307 306 305 306 307 309 308 307 305 307 307 306 306 306 304 305 302 301 305 304 300 300 299 300 301 304 305 305 306 307 307 306 306 306 305 307 309 304 308 309 310 310 311 305 305 304 303 303 302 302 300
310 309 308 307 307 306 305 306 309 308 307 305 306 306 306 306 305 304 303 301 301 305 304 303 303 299 298 298 299 307 305 303 304 303 306 307 307 306 307 306 305 304 304 306 306 306 306 305 303 302 301 300 299 298
308 310 309 308 307 306 305 306 309 309 308 306 306 306 306 305 304 303 302 301 302 304 309 305 298 299 298 298 298 300 302 302 302 304 307 307 306 303 306 304 304 304 303 305 306 304 303 302 303 300 300 299 298 298
302 307 310 309 308 306 305 305 307 309 308 307 306 306 306 305 304 303 300 300 301 303 309 305 299 297 297 298 299 300 302 304 306 307 308 308 306 303 303 303 305 302 304 305 306 305 306 303 300 299 298 298 298 298
299 302 308 310 308 307 305 305 307 309 308 307 305 306 306 305 304 303 304 298 301 300 305 308 298 299 298 299 299 300 301 303 305 306 307 306 303 305 307 307 307 304 301 302 304 303 302 300 299 298 298 297 297 297
298 300 303 309 309 307 306 305 306 309 308 307 305 306 305 305 303 303 304 299 301 300 304 307 305 298 297 298 299 300 300 302 304 305 305 305 304 304 307 307 306 304 302 302 302 300 299 299 299 297 297 296 295 296
298 299 301 307 309 308 306 305 306 308 308 306 304 304 304 304 302 302 300 300 300 299 300 308 305 300 296 300 301 297 302 302 302 304 302 304 303 304 306 306 304 303 303 301 298 297 298 297 297 297 296 296 296 297
297 297 299 304 309 309 307 305 306 306 308 304 304 304 303 301 302 300 298 298 298 299 305 303 308 310 297 299 299 299 300 303 299 303 303 302 305 306 306 305 304 302 300 299 297 296 296 296 296 296 296 296 295 296
296 297 298 302 308 309 307 306 306 307 306 303 303 302 303 299 298 298 297 299 300 300 299 303 301 303 300 300 301 302 300 303 305 303 299 300 303 304 303 302 303 301 298 298 298 297 296 296 295 294 294 294 294 294
296 296 297 300 307 308 308 306 306 307 304 303 301 301 296 297 296 298 301 301 301 301 300 300 300 301 297 303 304 301 303 302 305 303 302 303 303 302 301 301 299 296 296 295 296 295 294 294 293 293 294 294 294 294
296 297 297 300 307 308 307 306 306 304 302 301 299 297 296 297 299 301 302 299 299 302 299 299 298 299 297 297 302 299 303 299 304 299 300 302 303 298 298 298 295 295 295 295 294 295 294 294 294 293 293 293 293 293
296 296 297 300 307 307 307 306 306 303 301 299 298 297 298 298 302 303 302 300 301 299 297 296 298 298 296 297 300 301 301 302 297 299 301 302 299 296 296 296 295 295 294 295 295 294 294 294 293 293 293 293 292 292
295 296 298 302 307 307 307 306 302 300 301 296 299 300 303 301 302 303 301 302 298 299 297 299 297 299 297 299 299 301 300 297 299 301 302 301 298 297 296 296 295 294 295 294 293 293 293 292 292 291 291 291 291 291
301 299 301 306 307 307 306 302 301 301 294 297 298 303 301 300 296 297 296 296 294 297 296 296 297 298 298 298 299 299 298 300 300 302 302 299 297 296 295 295 295 294 293 293 292 292 292 291 291 291 291 291 291 291
303 303 306 307 307 307 302 300 299 294 292 295 296 299 297 299 296 296 297 297 294 296 295 297 298 300 301 301 300 300 301 301 302 301 299 296 295 294 294 294 293 293 292 292 292 291 291 291 291 291 291 291 291 290
306 302 307 307 306 301 299 297 292 293 295 296 297 296 297 300 298 298 298 296 294 297 301 299 301 302 296 300 300 299 300 301 300 297 296 295 295 294 294 293 292 292 291 291 291 291 291 291 291 290 290 290 290 290
303 305 306 303 299 296 293 292 292 295 296 295 297 296 296 296 296 295 294 293 296 298 298 301 295 297 299 299 299 299 298 299 297 297 296 295 293 292 292 292 291 291 291 290 290 290 290 290 289 290 290 290 290 291
294 298 299 298 298 293 292 291 291 293 293 293 293 294 294 293 293 294 294 293 292 293 294 296 298 299 298 296 298 299 298 296 295 294 292 292 291 291 291 291 290 290 290 290 290 290 290 291 291 290 290 290 290 291
290 290 291 292 293 291 292 291 290 293 293 292 292 293 292 292 291 293 292 292 293 295 295 296 296 296 296 296 296 297 296 295 293 292 291 292 291 291 291 290 291 290 290 290 290 291 291 291 291 291 291 290 291 291
291 290 290 291 289 289 291 291 290 290 291 291 291 292 290 291 292 293 292 291 293 293 294 294 294 294 293 293 292 292 292 292 291 291 291 291 291 291 291 291 291 291 291 291 291 290 291 291 291 291 290 290 290 290
291 291 291 290 289 289 290 288 290 288 289 290 290 290 291 292 291 290 289 291 291 293 292 292 293 293 293 292 291 291 291 290 290 290 290 290 291 290 290 290 290 290 290 290 290 290 290 290 290 290 290 290 290 290
291 291 289 288 289 290 290 288 290 289 290 288 289 290 289 289 286 285 289 289 291 290 290 291 292 291 291 291 290 289 289 289 290 290 290 290 290 290 290 290 290 290 290 290 289 289 289 289 289 289 289 289 289 289
290 289 288 288 289 289 289 289 289 288 288 289 290 289 287 287 284 286 289 291 289 288 288 289 290 290 290 290 290 290 290 290 290 289 289 289 289 289 289 289 289 289 289 289 288 288 288 288 288 288 288 288 288 288
290 289 290 288 286 288 289 289 288 288 288 288 287 286 284 282 287 287 287 289 288 288 290 289 290 290 290 290 290 290 289 289 289 289 289 289 289 289 289 289 288 288 288 288 288 288 288 288 288 288 288 288 288 288
289 289 290 288 287 288 288 288 288 288 287 287 286 279 280 285 285 288 289 288 288 290 290 289 289 289 289 289 289 289 289 289 289 288 288 289 288 288 289 288 288 288 288 288 288 288 288 288 288 287 287 287 287 288
289 290 288 285 286 284 285 284 284 285 285 286 284 281 284 285 287 288 288 287 289 289 290 290 289 290 290 290 290 289 289 289 288 288 288 288 288 288 288 288 288 288 288 287 287 287 287 287 287 287 287 287 287 287
291 289 287 286 284 284 284 284 284 285 286 284 283 283 284 287 289 290 288 289 289 290 290 289 289 289 289 289 289 289 288 288 288 287 287 287 287 287 286 286 287 287 287 287 286 287 286 287 287 287 287 287 287 287
290 286 287 283 283 285 284 285 285 286 285 283 286 287 286 286 288 289 289 289 289 288 286 287 288 288 288 289 288 287 286 286 286 286 286 286 287 287 287 287 287 287 287 286 287 287 287 287 286 287 287 287 287 287
289 288 287 285 285 287 290 287 288 286 285 286 286 287 287 287 288 289 289 288 286 286 288 288 289 289 289 288 288 287 287 287 286 286 286 287 287 287 288 287 287 287 287 287 287 287 287 287 287 286 286 286 286 286
286 287 287 287 288 289 288 285 284 285 284 285 284 286 288 290 289 289 289 289 289 288 288 288 288 288 287 287 287 287 287 287 287 287 287 286 286 286 286 286 286 286 286 285 285 285 285 287 287 286 286 286 285 285
284 286 285 284 285 282 280 284 284 286 286 284 287 284 284 285 286 287 289 289 288 287 288 288 287 287 288 287 287 287 287 286 286 286 286 286 285 285 286 286 286 286 285 284 283 283 283 285 286 286 286 285 284 283
279 280 278 282 282 282 279 282 280 280 279 281 283 283 285 286 286 287 289 288 288 288 288 288 288 288 288 288 287 287 286 286 286 285 286 286 286 286 286 287 286 285 284 282 282 283 283 283 285 286 286 285 283 282

GFSWCAN_925_thetae_135.txt.gz
Theta_e
310 311 309 307 306 306 305 305 306 307 308 307 307 306 306 306 306 305 305 303 303 302 302 301 302 304 302 301 303 303 303 303 302 304 302 301 301 300 302 303 303 303 303 303 303 307 305 302 303 302 300 300 300 300
303 309 310 310 308 306 306 306 306 306 307 308 307 307 306 306 305 304 306 304 301 301 302 300 301 300 300 300 301 302 303 303 302 302 300 299 302 299 299 303 302 305 304 305 304 305 302 301 302 300 299 299 299 298
300 303 306 309 309 308 306 306 306 306 306 307 308 307 306 305 305 303 303 302 303 300 300 299 300 299 299 299 300 302 300 301 301 299 301 301 302 300 303 301 302 302 300 304 303 302 301 300 299 299 299 298 296 296
298 299 301 306 309 309 307 307 306 306 306 306 308 307 306 305 305 303 303 301 302 301 301 302 299 299 298 299 300 301 300 301 300 299 302 302 303 299 301 300 300 299 300 301 301 302 300 300 299 297 296 296 296 296
297 298 298 301 305 308 309 308 307 307 306 306 308 308 306 305 305 303 301 300 301 301 304 302 299 298 298 299 299 300 301 301 300 302 302 303 300 301 298 299 299 298 300 301 301 299 299 298 296 296 295 296 295 296
297 297 298 298 300 304 308 309 308 307 306 305 308 308 306 306 305 303 301 299 301 301 300 301 297 297 299 299 300 300 300 299 299 301 301 301 300 300 301 302 301 298 297 298 301 299 298 296 295 296 295 295 295 295
296 296 297 297 298 299 302 307 309 308 307 306 307 308 306 306 305 303 303 300 300 301 300 299 298 296 297 298 297 297 299 298 299 300 300 300 301 300 301 303 302 298 299 298 296 296 297 296 296 294 294 295 296 295
296 296 296 297 297 298 299 302 306 309 307 306 307 307 306 306 304 302 302 302 301 300 298 298 299 298 296 298 298 295 298 297 298 299 298 301 300 299 302 302 303 299 298 296 295 295 295 293 293 293 294 294 293 293
296 296 296 296 296 297 298 299 302 307 308 306 306 306 304 304 302 302 300 300 299 299 298 297 298 303 295 297 297 296 295 298 295 298 299 299 301 303 303 302 301 299 299 296 294 293 293 293 293 293 293 292 291 291
296 295 295 295 296 296 297 298 299 304 308 306 305 304 302 301 301 299 297 297 294 295 294 297 294 299 297 298 299 298 297 299 297 298 296 300 301 300 299 299 299 298 295 293 293 293 292 292 291 292 292 291 291 290
295 295 295 295 295 295 296 297 298 302 306 305 302 299 297 297 298 298 300 298 297 300 296 295 296 297 295 300 301 299 296 298 299 298 300 300 300 299 297 296 294 293 292 293 292 292 291 290 290 290 290 291 291 291
294 296 295 295 295 295 296 296 298 300 304 303 299 296 296 297 297 300 301 297 299 298 295 298 298 296 294 294 297 295 297 298 300 297 299 299 296 296 296 292 291 290 291 290 291 291 292 292 292 292 291 291 291 291
295 295 294 294 295 295 295 296 297 299 302 300 297 295 297 297 301 300 301 301 296 294 295 295 297 294 293 294 296 296 300 300 294 299 299 296 295 293 291 291 291 291 291 292 292 292 292 292 291 291 291 291 290 290
295 294 293 294 294 294 295 296 297 300 302 297 298 299 302 298 298 297 295 296 293 294 295 295 294 294 294 295 296 295 297 296 299 300 295 290 292 291 291 291 290 290 290 289 291 291 291 291 290 291 291 291 290 290
294 295 294 294 294 294 294 295 296 298 298 297 297 302 299 296 290 288 286 292 289 295 295 294 294 294 296 295 297 296 296 296 299 297 293 290 291 291 290 290 290 290 290 289 290 290 290 290 290 290 290 290 290 290
294 294 294 294 295 295 295 295 295 297 294 295 296 301 296 294 295 287 288 296 291 295 292 294 296 297 294 297 295 295 296 293 293 291 290 290 291 290 290 290 290 290 290 290 290 290 290 290 290 289 290 289 289 289
292 292 292 292 293 294 294 296 296 294 295 296 297 296 292 292 297 290 292 296 295 297 297 296 296 297 296 294 294 294 294 296 295 289 288 289 289 289 289 290 290 290 289 289 289 289 289 289 289 288 286 288 288 288
292 292 291 291 292 293 295 296 294 294 295 296 296 292 293 291 293 292 290 294 296 294 295 295 293 297 295 294 292 293 291 288 288 291 291 289 290 290 290 288 289 288 288 289 289 289 289 288 286 286 287 288 288 288
293 292 292 291 292 295 291 290 293 295 294 293 294 290 290 291 291 292 293 295 293 294 295 294 297 291 295 293 293 290 291 290 292 291 290 291 291 289 289 289 290 289 289 289 289 288 288 288 288 288 288 287 287 287
292 291 291 294 294 291 290 289 291 292 293 294 293 294 294 294 294 294 295 294 295 295 296 294 295 294 294 293 290 292 292 290 290 289 288 287 289 289 289 289 288 289 289 289 288 288 288 288 288 288 288 287 287 287
291 290 295 294 290 290 288 290 289 290 292 292 292 291 292 293 294 295 295 292 294 296 294 293 293 294 291 291 293 292 291 290 287 286 285 285 286 288 288 289 289 288 287 287 287 287 288 288 288 288 288 288 287 287
290 291 289 290 290 289 288 287 288 289 290 290 290 291 292 292 291 291 291 292 293 292 291 292 292 291 290 289 289 291 291 291 290 288 289 289 287 284 286 288 287 285 286 286 287 286 287 287 287 288 288 287 288 287
290 289 288 289 289 289 289 289 288 289 291 289 290 289 289 287 286 287 292 291 290 289 290 290 290 289 289 290 290 290 290 289 286 287 287 288 288 288 288 288 288 286 286 287 287 287 287 287 288 288 288 287 287 286
289 287 287 288 289 289 289 288 289 289 290 290 289 288 287 286 285 288 290 289 289 288 289 289 287 287 287 287 286 287 289 289 287 287 287 286 284 286 287 287 287 287 287 287 287 287 287 286 287 287 287 286 286 285
289 288 288 288 288 289 289 288 288 289 289 288 287 285 284 284 287 287 288 288 287 288 287 286 285 286 287 287 286 287 288 288 285 285 288 288 287 287 286 286 286 287 287 286 286 285 286 286 286 286 286 285 285 285
289 286 288 287 287 288 288 288 289 288 288 286 283 281 281 284 286 288 286 286 287 287 285 286 287 286 286 286 285 283 287 288 288 285 288 288 288 285 282 282 284 286 287 287 287 286 286 286 285 285 285 285 286 286
288 288 286 285 285 285 286 285 285 286 286 285 282 282 282 284 285 285 284 284 286 286 288 288 287 286 286 286 288 289 289 289 288 288 289 289 289 288 287 284 285 287 287 287 286 286 286 286 285 285 284 285 285 285
285 285 287 283 284 282 284 283 283 284 284 282 282 282 285 286 287 285 284 287 288 288 289 289 289 290 290 290 290 290 289 289 288 288 288 287 287 287 287 287 287 287 287 287 287 286 286 285 285 285 284 284 285 285
285 284 284 283 281 282 281 283 283 283 283 282 283 283 282 282 282 282 288 288 289 289 289 289 290 290 289 288 288 288 289 287 284 279 280 281 277 285 287 287 287 287 287 286 286 286 286 286 286 286 286 286 287 286
283 281 281 279 282 284 282 280 280 277 280 281 282 281 281 280 285 287 287 288 287 285 288 289 288 287 285 285 285 287 287 287 287 285 282 283 283 287 287 286 286 286 286 285 285 285 285 285 285 286 286 285 284 282
285 287 279 279 280 278 276 276 278 283 275 274 272 277 279 278 283 288 288 289 290 288 286 285 285 286 285 284 282 276 283 286 286 286 286 286 286 286 286 286 285 285 285 285 284 283 284 284 285 285 284 283 282 282
280 278 279 282 280 275 271 272 271 273 271 274 275 269 274 276 278 279 289 289 287 284 286 287 284 285 287 287 287 287 287 287 287 287 286 285 285 285 285 285 285 285 285 285 285 284 285 285 285 284 283 282 281 281
276 276 272 273 277 278 274 273 272 272 270 270 271 271 271 277 281 280 287 287 288 288 288 288 287 287 286 286 286 286 286 286 285 286 285 284 284 284 284 284 284 284 284 285 284 285 285 284 283 283 282 281 280 279

GFSWCAN_925_thetae_138.txt.gz
Theta_e
304 309 311 309 307 307 306 305 305 306 307 307 306 306 306 306 305 304 304 303 302 301 301 301 301 302 301 300 302 301 302 302 301 303 301 300 299 299 301 302 301 301 301 301 301 304 301 300 302 301 298 300 300 298
301 304 309 310 308 307 306 305 305 305 306 307 307 307 307 305 305 304 305 304 302 299 301 300 300 300 300 300 300 300 301 302 301 301 299 298 301 297 297 301 300 303 301 302 300 301 300 299 301 300 298 298 299 297
298 301 303 306 309 309 307 306 305 306 306 306 307 307 307 306 305 303 303 303 303 298 299 298 300 299 299 299 300 302 299 300 300 298 298 299 302 299 302 300 301 301 299 303 303 302 302 300 299 298 297 298 296 296
298 298 299 301 304 308 309 307 306 306 306 306 306 307 307 306 305 303 303 302 302 300 300 300 299 298 298 299 299 301 300 300 298 298 301 301 301 298 300 299 299 298 299 301 301 300 301 300 298 297 296 295 295 295
297 297 297 299 300 304 307 309 307 306 306 306 306 308 307 306 305 304 302 301 301 301 302 301 298 298 298 298 299 300 301 299 299 300 300 302 299 300 296 297 298 297 299 300 301 299 300 299 297 295 295 295 294 295
296 296 297 298 298 300 303 306 308 307 307 307 306 307 307 306 305 303 301 300 301 301 299 299 296 296 298 299 299 299 299 298 298 300 300 299 298 299 300 301 300 297 296 296 300 298 297 295 294 294 295 294 294 294
297 296 296 297 297 298 299 302 305 308 308 307 306 307 307 306 305 302 301 301 300 301 299 299 300 296 297 297 296 296 298 296 298 299 299 299 299 299 299 301 301 299 297 297 295 295 297 296 296 294 294 294 296 294
296 297 296 296 296 297 298 299 302 304 308 307 306 307 307 306 304 303 303 301 301 300 297 295 297 297 296 297 297 294 296 296 297 298 297 299 298 297 302 301 301 298 298 296 295 295 296 293 293 292 293 293 292 292
294 295 296 295 296 296 297 298 299 301 304 307 306 307 304 304 302 302 301 301 300 299 295 296 297 300 295 297 296 296 294 297 294 298 298 298 299 302 303 301 301 298 298 297 294 293 292 293 292 292 291 290 290 290
292 294 296 295 295 296 296 297 297 299 303 307 306 305 303 301 301 300 298 296 293 294 295 297 293 298 297 297 299 297 295 297 294 297 295 299 300 299 299 299 298 298 296 292 294 293 292 291 291 290 291 289 289 289
292 293 294 296 295 295 295 296 296 298 302 305 302 299 297 298 298 299 300 300 296 299 295 295 296 297 295 300 300 298 295 296 295 295 299 300 300 298 296 296 293 295 292 292 292 292 291 290 289 289 289 290 290 290
292 293 293 295 295 294 295 295 296 298 301 302 299 297 297 297 298 302 301 297 299 299 294 298 298 295 294 294 298 296 297 298 301 297 300 300 296 296 295 293 291 290 290 290 290 289 289 290 291 290 290 290 290 290
292 292 293 294 295 294 295 295 295 297 299 299 296 295 297 297 301 303 301 301 298 292 294 295 296 293 293 294 295 296 300 300 295 299 298 296 295 293 291 290 289 290 290 291 291 292 292 291 291 291 290 290 290 290
292 292 294 295 294 294 294 294 295 297 299 298 297 299 300 298 299 296 295 298 293 292 295 294 293 294 293 295 295 294 297 295 299 299 296 291 292 291 290 290 289 288 287 286 288 290 290 290 290 290 290 290 289 289
292 293 294 294 293 294 294 294 295 296 299 297 296 301 299 296 291 287 285 290 289 295 294 293 293 294 295 295 296 295 298 299 297 296 294 290 290 290 290 288 288 288 288 288 289 289 289 290 289 289 289 289 289 289
292 293 294 294 294 294 294 294 294 296 295 294 295 299 297 292 295 292 285 291 290 295 291 293 297 294 295 294 298 297 293 292 294 291 290 290 290 290 289 287 288 289 288 288 289 289 289 289 288 288 289 289 288 288
292 294 293 293 292 292 293 294 295 295 296 296 295 296 296 289 293 290 290 293 294 297 296 294 294 297 294 292 294 292 293 294 290 288 288 290 291 290 288 288 289 289 289 289 288 288 288 288 288 288 284 288 288 288
293 293 292 292 291 291 293 294 293 295 296 292 295 293 296 292 290 291 290 294 295 295 295 295 293 296 297 296 293 293 291 287 287 291 291 289 288 288 289 288 289 289 288 288 288 288 287 287 286 285 287 288 287 288
294 293 292 292 292 291 293 293 293 295 292 286 287 286 289 290 289 290 291 295 292 293 294 294 295 293 294 291 292 290 289 289 291 290 288 289 290 289 289 289 288 287 287 288 288 287 288 288 288 287 287 287 286 286
293 293 292 292 291 291 291 292 292 289 289 290 289 291 289 292 290 291 294 295 293 295 297 296 295 293 293 293 292 294 292 290 291 291 290 288 289 289 288 287 287 288 288 288 288 288 287 287 288 287 287 287 285 286
291 291 292 292 292 290 290 290 292 289 289 286 287 294 293 294 295 295 296 294 296 298 298 292 292 293 293 292 292 292 291 292 292 291 293 289 287 287 287 288 289 288 286 286 285 286 287 287 287 287 287 287 287 287
289 290 289 289 289 288 288 288 288 289 288 289 291 292 292 292 292 296 294 296 297 294 292 291 291 292 291 292 291 294 292 291 289 287 287 287 284 283 284 287 286 284 285 286 286 285 286 287 287 287 286 287 287 287
289 289 289 289 289 288 289 288 288 288 290 289 285 286 288 286 288 287 295 294 293 288 289 290 290 291 290 290 290 290 292 291 286 286 287 287 288 288 288 288 287 286 283 286 286 286 286 287 287 287 287 287 286 286
289 287 288 288 289 289 288 288 288 288 290 290 288 284 281 284 286 289 292 289 288 288 289 289 290 289 288 288 287 288 288 289 287 287 287 286 282 285 287 287 287 287 287 287 286 286 286 285 286 286 285 285 285 285
289 287 288 288 288 289 288 287 285 283 284 284 283 285 284 283 285 287 289 286 286 289 292 290 289 289 289 290 287 287 288 288 285 284 288 287 286 286 285 286 287 287 287 286 286 285 285 286 285 285 285 284 284 284
288 286 287 288 287 287 288 287 287 287 284 282 281 281 282 287 289 291 288 286 290 290 290 290 290 288 287 287 286 284 287 288 287 284 288 288 287 285 282 281 279 286 288 287 286 286 285 285 285 285 284 284 284 285
289 288 287 286 286 286 287 286 287 288 287 286 283 283 286 291 290 288 286 285 287 286 288 288 288 288 287 287 288 288 289 288 288 288 289 289 288 288 287 284 281 287 287 287 286 286 285 285 284 284 284 284 284 284
285 286 288 285 285 284 286 285 285 287 286 284 284 286 288 289 289 286 285 286 287 287 288 288 288 289 288 289 290 289 289 288 288 287 288 288 288 288 287 287 287 287 287 287 286 286 286 286 285 284 284 283 284 284
285 285 285 286 284 284 283 284 284 284 283 283 286 286 285 283 283 283 287 287 287 288 287 286 287 287 287 287 288 288 288 287 285 280 279 280 276 285 286 287 287 286 286 286 286 285 285 285 285 285 285 285 285 285
284 283 282 281 284 285 282 280 280 278 280 281 282 282 283 282 284 286 288 288 287 284 288 288 287 287 285 285 285 286 286 287 287 284 280 280 281 287 286 286 286 286 285 285 285 285 285 284 283 283 283 283 284 285
283 285 280 279 280 277 275 274 275 281 276 276 275 279 281 277 282 287 287 288 288 286 286 285 285 285 284 283 280 273 279 286 286 286 286 286 286 286 286 286 285 285 284 284 284 284 283 283 284 284 283 284 284 284
277 274 277 282 279 273 271 271 272 273 274 277 277 272 276 279 281 280 288 287 286 284 287 287 284 286 287 287 287 286 286 286 286 286 286 286 285 285 285 284 284 284 283 283 283 283 283 284 284 284 284 283 283 282
273 271 268 271 275 275 271 272 272 274 272 271 272 269 269 275 280 279 287 288 288 288 288 288 287 287 286 286 286 286 286 285 285 285 285 284 284 284 283 283 282 282 282 283 283 284 284 284 283 282 282 282 281 281

GFSWCAN_925_thetae_144.txt.gz
Theta_e
298 300 304 305 309 311 307 306 305 305 305 305 307 306 305 306 305 303 303 302 300 298 299 300 300 300 299 299 302 300 300 300 299 301 300 299 297 297 300 299 300 301 299 301 299 301 298 298 301 301 298 298 299 298
297 298 301 303 305 311 308 307 306 305 305 305 306 306 305 306 306 304 303 303 301 297 298 299 299 299 299 298 297 297 298 299 299 299 298 296 299 294 295 298 297 299 297 298 298 299 296 297 299 298 296 298 298 297
298 297 298 300 302 306 309 307 306 306 305 305 305 307 306 306 306 304 302 302 301 297 297 297 298 298 299 299 300 301 298 297 298 295 296 297 300 296 299 297 298 298 296 299 301 300 297 297 297 298 297 299 297 295
297 297 297 297 300 301 304 308 307 307 305 305 305 306 307 306 306 305 303 302 301 297 299 298 298 298 298 298 298 300 298 297 296 295 298 298 300 297 299 298 298 297 297 299 299 299 298 298 297 298 296 295 295 294
297 297 297 296 297 299 301 303 307 307 305 305 305 306 307 306 306 305 304 302 301 300 301 300 296 297 298 298 298 299 298 297 297 299 299 300 297 297 295 296 297 295 298 301 301 298 298 299 296 295 294 294 293 293
295 297 297 296 296 296 298 300 302 306 306 305 306 306 306 307 306 304 300 300 301 301 299 300 296 296 297 298 298 297 297 296 296 298 297 296 296 298 299 299 298 295 294 295 298 297 296 296 295 293 294 293 293 293
293 294 297 297 296 295 296 297 299 301 306 306 306 306 306 307 306 303 301 300 300 301 298 298 298 296 296 296 294 295 295 295 297 297 298 297 298 298 299 300 299 297 295 296 293 295 298 296 297 293 293 293 295 293
292 293 295 296 296 296 295 295 297 298 302 306 306 306 306 307 304 304 303 300 300 299 295 295 296 297 296 297 298 293 296 295 296 297 295 298 297 297 302 301 298 298 295 295 293 294 295 292 291 291 292 291 290 290
292 292 293 294 296 296 295 295 295 296 299 304 306 307 304 305 303 303 303 300 300 299 297 294 298 301 295 296 294 295 293 298 293 298 297 297 299 302 303 302 300 297 297 295 292 292 292 293 291 291 291 290 290 288
291 292 292 293 294 295 295 295 295 296 298 303 305 306 304 302 303 301 299 299 297 296 294 296 294 298 296 296 296 296 294 297 295 297 294 300 301 300 300 298 298 297 295 291 293 293 292 292 291 290 290 289 288 287
292 291 291 292 293 294 295 295 295 298 299 300 300 298 297 299 299 300 301 302 299 301 297 297 294 297 294 298 298 295 293 294 294 294 299 300 300 299 297 296 295 295 293 291 294 295 292 291 290 288 287 287 288 288
292 290 291 291 292 293 295 295 295 297 299 298 296 296 298 297 298 301 302 300 301 302 295 297 296 295 294 293 296 295 295 297 297 294 299 300 298 296 295 294 292 291 292 291 292 291 290 290 289 288 287 287 288 289
292 291 290 290 291 292 294 295 295 297 297 296 295 294 295 297 302 304 305 302 302 295 294 294 296 294 292 293 294 294 296 299 294 299 298 296 295 293 292 291 291 290 290 290 289 289 289 288 289 289 288 289 289 289
292 292 291 291 292 292 294 295 294 295 296 296 297 298 298 299 299 298 296 296 294 291 295 292 293 294 293 294 294 294 295 296 299 297 295 292 292 292 290 289 289 289 288 287 287 288 288 289 288 289 289 289 289 288
292 292 291 292 292 293 293 294 294 295 297 297 297 299 299 297 291 290 284 288 291 292 291 293 293 294 294 296 295 296 297 299 298 295 293 291 290 290 289 288 288 287 286 286 286 285 286 288 288 289 288 288 288 288
291 292 292 291 291 292 293 293 294 295 295 295 296 298 297 297 295 293 290 293 291 293 291 295 295 295 296 294 297 298 297 297 295 293 290 290 289 289 288 288 287 286 286 286 287 287 287 287 287 287 287 287 287 287
291 291 291 289 291 293 294 293 293 292 295 296 295 294 291 292 297 294 291 291 290 295 298 297 298 298 294 297 298 294 293 294 294 291 286 289 290 289 288 287 286 286 285 286 286 287 287 287 287 286 285 287 287 286
290 289 290 290 291 293 293 293 292 292 292 293 294 291 294 294 292 292 291 293 295 295 295 298 293 297 296 295 296 293 292 288 286 288 290 289 288 287 288 287 287 287 286 287 287 287 287 286 285 285 286 287 286 287
290 290 290 291 292 292 291 292 290 293 292 292 291 285 287 290 289 290 292 293 294 294 295 295 298 299 294 291 291 290 286 288 293 291 288 288 288 288 288 287 287 287 287 286 286 286 286 287 286 286 286 286 285 286
291 291 291 291 292 291 292 292 290 289 286 287 287 285 286 288 287 288 290 292 294 295 297 297 297 295 293 292 289 289 290 289 289 291 291 288 287 288 287 287 286 287 287 285 286 286 286 286 286 286 286 286 286 286
291 291 291 291 291 290 284 280 291 292 283 283 278 285 286 288 284 288 290 287 295 297 295 293 297 296 292 291 292 292 291 291 292 293 293 290 287 288 287 287 288 287 285 284 284 285 287 286 287 287 286 286 286 286
291 291 292 292 290 290 290 284 283 284 286 288 290 279 289 292 291 287 281 294 296 295 294 295 295 295 295 292 293 292 293 293 293 291 292 292 287 286 286 286 285 284 284 285 286 285 286 287 287 287 286 287 286 286
290 290 289 289 290 289 289 287 288 283 286 284 285 287 284 289 281 286 294 292 294 294 294 294 294 294 293 295 292 292 293 291 289 289 291 290 291 290 289 287 287 285 283 285 287 287 287 287 287 286 286 286 285 285
289 288 288 286 287 286 286 284 283 284 286 284 284 285 279 279 281 291 293 293 293 288 290 292 290 287 286 287 286 288 289 290 289 289 290 288 287 287 289 289 289 290 288 287 287 287 287 287 286 286 285 285 284 284
288 287 287 287 284 286 282 279 279 282 280 279 280 277 277 277 285 285 285 287 283 287 290 287 288 291 293 294 290 287 289 288 287 287 286 289 287 285 286 287 287 287 287 287 286 287 287 286 286 285 285 284 283 283
289 287 285 286 284 281 281 279 280 278 277 278 281 277 277 282 282 285 280 280 284 285 288 289 290 290 290 291 288 286 288 289 289 285 286 286 288 287 286 285 283 287 288 287 287 286 286 286 285 285 285 284 284 284
288 286 283 286 286 285 286 286 285 281 280 281 281 282 284 286 286 284 281 279 282 284 288 290 290 287 288 288 289 290 290 290 293 293 294 291 289 288 288 286 283 287 287 287 286 286 286 286 285 285 284 284 284 283
287 287 287 285 286 285 287 285 286 287 288 286 285 285 287 288 288 283 280 284 286 287 289 291 292 293 292 291 290 290 290 289 287 286 287 286 286 287 288 288 287 287 286 285 285 285 285 285 285 285 284 284 284 284
287 286 286 287 285 285 285 285 286 285 284 284 286 286 283 283 282 281 284 283 284 286 287 287 285 289 287 286 288 287 286 285 285 284 284 281 278 286 287 286 286 286 285 285 285 285 285 284 284 284 284 284 284 283
284 282 284 282 285 286 284 281 282 282 282 282 282 281 283 283 283 283 284 285 283 281 284 286 286 287 284 285 282 284 285 286 288 286 281 280 281 285 286 286 286 285 285 285 285 284 284 283 283 283 282 282 282 282
277 276 279 282 283 279 277 274 273 279 276 277 277 280 283 280 281 283 282 282 283 285 285 281 282 283 283 283 283 279 282 286 287 286 286 286 285 285 285 285 285 285 284 284 283 283 282 282 281 280 280 280 280 282
274 274 276 281 281 276 272 273 272 273 274 275 276 274 278 279 280 278 279 280 282 282 283 283 284 285 285 284 284 285 286 286 286 286 285 285 285 285 285 284 284 283 283 282 282 282 281 280 280 279 279 279 281 282
266 265 270 270 276 278 273 273 276 277 273 273 274 270 270 274 280 277 279 279 279 279 281 283 284 284 285 285 285 285 285 284 284 284 283 283 283 283 283 283 282 282 282 282 281 280 280 279 278 278 278 278 278 278

GFSWCAN_925_thetae_147.txt.gz
Theta_e
299 299 299 303 303 306 311 310 306 306 305 305 305 306 305 305 306 303 302 301 300 297 297 299 300 299 298 298 301 300 300 300 299 301 299 298 297 296 300 298 300 302 300 301 299 301 300 296 299 301 298 298 299 299
298 298 298 300 301 304 310 311 306 305 305 305 305 307 305 305 306 305 302 302 301 297 297 298 298 299 299 298 296 297 297 299 299 298 297 295 298 293 295 298 295 298 296 298 298 299 295 296 299 297 295 298 299 298
297 298 298 297 299 302 305 310 307 306 305 305 305 306 306 305 306 305 302 302 300 297 297 297 297 298 298 298 299 300 297 297 297 295 295 297 300 295 299 297 297 297 294 297 299 300 297 295 296 296 296 298 297 295
297 298 297 297 296 299 302 303 308 307 306 305 305 305 307 306 305 305 303 302 301 297 300 298 297 297 298 298 298 299 297 297 295 295 298 298 300 295 298 298 297 297 296 299 298 298 297 297 296 298 296 295 295 294
295 297 297 297 296 297 299 300 302 307 307 306 305 305 306 307 305 305 304 303 301 300 301 299 296 297 297 298 298 298 298 296 296 298 298 300 296 296 293 295 296 294 298 301 302 298 298 299 297 296 295 295 293 293
293 294 296 296 296 295 297 298 299 302 306 306 305 305 306 307 306 304 301 301 301 301 299 301 295 296 297 297 297 297 296 294 295 297 297 295 295 297 298 299 298 294 293 295 298 295 295 297 295 294 294 293 292 292
293 293 295 296 296 296 295 297 298 299 301 306 305 305 306 307 306 304 302 300 300 300 298 299 297 295 296 296 294 294 295 293 295 296 297 296 297 298 299 301 300 296 294 294 294 295 297 295 297 293 293 292 294 292
292 292 293 294 296 296 296 295 296 299 299 302 306 305 306 307 306 303 303 300 300 298 295 295 296 297 296 296 297 292 295 294 295 297 296 298 297 297 302 301 299 298 296 296 294 293 294 292 291 291 291 290 290 290
292 292 292 293 294 296 296 295 295 296 299 300 304 306 303 305 303 303 301 300 300 299 297 294 300 302 295 295 294 294 294 298 294 298 297 297 299 303 303 301 298 296 297 297 292 292 291 293 292 291 290 289 289 288
293 291 291 292 293 294 295 295 295 295 298 301 304 306 304 302 304 301 300 300 298 296 293 296 293 297 296 296 296 296 294 297 295 297 294 300 302 301 299 298 297 296 295 291 293 294 292 292 291 290 290 289 289 287
293 292 291 291 292 293 294 295 295 297 297 298 298 296 298 299 301 301 301 302 300 302 298 297 294 297 294 298 298 295 295 295 295 294 298 299 300 298 296 295 295 295 292 291 294 294 292 292 290 289 288 288 288 287
292 292 291 290 291 292 293 295 295 296 298 297 295 295 298 297 298 301 302 301 302 303 296 298 295 295 294 293 296 295 295 297 297 295 299 298 297 295 295 295 294 292 292 291 293 292 291 290 289 287 286 286 288 288
291 292 291 290 291 291 293 295 295 296 296 296 294 295 296 296 301 304 305 302 302 294 295 295 296 295 292 293 294 294 295 296 293 298 297 296 295 293 292 291 291 290 291 290 289 290 289 288 289 288 287 288 288 288
292 292 291 291 291 292 292 294 295 296 296 295 296 298 297 299 298 301 301 295 291 290 295 293 294 295 294 295 295 294 294 296 299 296 296 293 293 293 291 289 289 289 288 287 287 287 287 287 287 288 289 288 288 287
292 292 292 291 292 292 292 292 294 295 296 297 297 298 298 294 291 292 287 291 292 294 292 294 294 295 295 296 294 296 297 299 297 295 294 291 291 290 290 288 288 287 286 286 286 285 286 287 287 287 288 288 288 287
291 291 291 292 291 291 292 293 294 295 295 294 296 297 296 297 296 294 291 293 292 292 290 294 295 297 295 295 297 298 295 295 296 293 291 290 291 289 289 288 287 286 286 286 286 287 287 286 286 287 287 287 287 287
291 291 290 291 290 291 292 293 293 292 292 293 294 294 294 294 297 294 292 293 292 295 299 296 295 298 294 297 297 292 293 294 293 291 287 290 291 289 288 287 287 286 285 286 286 287 287 287 286 286 284 286 286 286
291 290 291 290 291 292 293 292 292 290 291 291 293 291 293 294 292 293 292 292 295 296 296 299 294 295 294 295 295 292 291 289 289 290 291 290 288 287 288 287 287 286 285 286 286 286 286 285 284 284 286 287 286 286
291 290 289 290 291 291 291 291 291 292 291 291 291 285 286 290 289 290 291 292 293 294 296 296 297 299 296 290 291 290 287 287 292 292 290 289 289 288 288 288 287 286 285 285 285 286 286 287 286 286 286 286 285 285
291 290 290 290 291 291 291 291 290 289 288 285 287 286 286 287 286 287 289 290 294 296 297 297 294 294 293 292 289 290 291 290 291 293 293 290 288 287 286 286 286 286 286 285 286 286 285 285 285 286 286 285 285 286
291 291 290 290 291 290 287 288 290 290 286 285 278 281 282 286 287 287 288 287 294 290 291 293 294 294 293 293 292 291 291 290 292 294 296 294 288 287 286 287 287 286 285 284 284 285 287 285 286 286 286 286 286 286
290 290 290 290 290 290 288 287 284 286 289 286 289 287 289 290 284 287 280 290 286 292 291 293 293 293 293 293 293 292 294 293 292 292 292 292 287 286 287 287 285 286 286 286 285 285 286 287 287 286 285 286 286 286
290 290 290 290 290 289 288 286 286 287 286 282 287 288 287 287 283 282 286 287 289 290 292 292 293 293 292 293 292 293 294 293 290 289 290 291 291 290 290 288 287 287 286 286 287 287 287 286 286 286 286 286 286 286
290 289 289 288 287 286 282 284 284 283 278 282 285 281 278 284 279 290 292 292 291 286 290 291 291 292 287 287 288 292 292 290 290 290 291 289 286 287 289 288 287 288 289 289 288 287 287 286 285 286 286 286 285 284
289 287 285 284 279 284 283 278 276 285 281 277 279 279 277 280 287 286 282 287 285 289 290 290 290 291 292 292 292 292 292 291 287 288 289 289 288 286 286 287 286 288 289 288 286 286 286 286 286 286 285 285 284 284
288 285 283 280 278 281 279 276 277 278 276 276 277 274 274 279 280 283 281 279 282 283 285 285 288 288 289 290 291 287 287 290 289 284 287 287 288 288 287 285 285 286 287 288 287 286 286 285 285 285 285 285 284 284
286 282 280 284 285 284 284 284 283 281 281 282 280 280 283 285 280 282 281 279 281 283 285 286 286 287 288 286 289 290 290 289 289 289 288 287 287 288 289 287 283 287 287 287 287 286 286 286 286 285 285 285 285 284
286 285 284 282 284 284 286 285 285 285 284 284 283 283 284 283 284 282 280 284 283 283 286 288 289 289 289 288 288 288 288 289 290 292 292 289 286 287 287 287 287 287 287 287 286 286 286 285 285 285 284 284 284 284
286 285 285 283 283 283 284 284 284 284 284 283 285 286 287 284 281 281 284 283 283 285 287 288 286 289 288 288 288 290 290 286 285 285 285 283 281 284 286 286 286 286 285 286 285 285 285 285 284 284 284 283 283 282
283 280 284 284 286 285 283 282 282 282 282 283 283 282 283 283 282 281 281 281 279 279 281 284 284 284 283 283 282 283 284 286 286 286 284 282 282 284 285 285 286 286 286 285 285 284 283 283 283 282 281 281 280 280
275 275 279 281 283 280 276 274 272 278 278 279 277 280 283 281 280 280 279 279 280 282 282 281 283 283 284 284 283 282 283 284 285 286 286 285 285 285 285 285 285 285 285 284 284 283 282 282 281 280 279 279 279 279
272 271 274 280 280 274 272 272 272 273 272 274 278 275 277 278 280 279 278 279 280 278 280 280 281 280 282 283 283 283 284 284 284 285 285 285 285 285 285 284 284 283 282 282 282 282 281 281 280 279 279 278 278 278
266 264 268 268 273 276 272 271 273 274 272 273 274 271 270 273 280 276 278 277 277 276 277 279 280 282 283 284 284 284 284 284 284 284 284 284 284 283 282 282 282 282 282 281 280 279 279 278 278 278 277 277 277 277

GFSWCAN_925_thetae_150.txt.gz
Theta_e
298 299 299 299 302 303 304 308 311 308 306 306 305 306 306 305 306 304 302 301 301 304 303 300 301 302 301 303 307 303 305 303 303 305 304 303 302 302 304 302 305 308 309 308 306 308 310 300 301 304 303 302 302 302
298 298 298 298 299 301 303 307 311 310 307 306 305 305 306 305 305 305 302 301 300 301 302 298 298 299 299 299 302 301 302 303 305 305 302 301 302 298 301 304 299 303 304 304 306 308 300 301 303 300 300 303 302 302
297 298 298 298 298 299 301 304 310 311 307 306 305 305 306 305 305 306 303 302 300 301 301 300 301 298 298 299 299 305 302 300 301 299 302 302 304 301 304 302 301 300 298 302 301 304 302 301 301 300 300 301 300 299
295 296 297 297 297 298 300 302 304 310 306 305 305 305 305 306 305 305 304 302 301 300 305 302 297 297 297 298 298 299 299 297 298 300 303 304 305 300 303 301 301 302 299 303 302 303 302 302 301 301 300 299 298 297
293 294 296 297 297 296 297 300 300 306 307 305 305 305 305 307 305 305 305 303 301 302 305 303 297 296 297 297 297 298 298 300 302 303 304 305 301 300 299 299 302 299 303 306 309 304 304 303 300 298 300 299 299 298
293 293 294 296 297 296 296 297 299 300 303 306 305 305 305 306 306 304 305 303 303 301 304 306 297 297 296 297 297 298 298 299 300 302 303 300 298 301 304 305 305 300 300 302 304 299 300 299 298 297 299 298 297 297
293 292 293 294 296 296 296 296 296 298 300 304 306 305 305 306 306 304 305 301 302 300 302 305 302 297 296 296 296 298 297 299 301 302 302 302 302 302 304 306 306 301 300 299 298 299 301 298 300 296 297 296 295 295
293 292 292 293 294 296 296 295 295 296 299 301 305 305 305 306 304 303 302 300 300 299 298 304 301 299 296 300 301 296 300 299 300 302 299 302 300 301 305 305 301 300 299 297 297 297 298 296 295 294 294 294 295 294
292 292 292 292 293 294 295 296 295 295 297 300 303 305 303 305 303 302 301 300 300 300 304 300 305 306 296 297 298 298 298 302 297 302 301 300 303 305 306 306 303 301 301 301 296 295 294 296 295 294 294 294 294 293
292 292 291 291 292 293 294 295 295 295 297 300 304 305 304 302 304 301 300 300 299 301 297 302 298 302 299 299 299 300 298 301 303 301 297 301 304 303 303 302 301 300 298 296 296 296 295 295 295 294 294 294 294 293
292 292 292 290 291 291 293 295 295 295 297 297 296 296 299 300 302 302 301 302 300 303 300 300 299 300 296 302 302 298 301 299 304 301 302 303 303 302 299 298 298 299 297 296 297 297 296 297 295 294 293 292 291 291
292 292 292 290 290 291 292 294 295 296 297 295 294 294 298 298 299 301 303 301 303 306 299 300 298 298 297 296 300 297 300 298 304 297 300 303 303 299 297 297 296 296 295 294 295 295 294 294 293 293 292 291 290 289
292 292 292 290 290 291 292 294 295 296 296 296 294 295 297 297 302 305 306 305 305 299 297 296 298 297 294 296 297 298 301 301 296 300 302 302 300 296 296 294 293 293 294 293 293 292 292 291 290 290 289 289 289 289
291 291 292 291 290 292 291 293 294 295 296 296 298 300 300 301 301 303 303 303 295 296 297 296 296 298 296 299 297 301 296 298 300 300 302 303 298 297 295 293 293 293 293 292 292 291 290 290 289 289 289 289 288 288
293 292 292 292 291 291 291 292 293 295 294 297 298 298 300 297 296 294 291 294 293 295 295 296 296 298 298 298 296 297 298 300 300 302 302 299 294 294 294 293 293 293 292 292 289 289 288 288 288 288 288 288 288 287
291 292 292 291 291 291 291 293 294 294 293 295 297 298 297 298 298 296 294 295 294 294 294 297 299 300 300 299 299 300 300 301 302 299 298 294 294 292 293 292 292 291 291 290 289 289 288 288 288 288 287 287 287 287
291 291 290 290 292 290 291 292 293 291 291 293 295 294 295 297 297 296 295 295 293 296 300 299 301 303 296 299 299 296 298 300 297 297 293 292 293 293 292 291 290 289 289 288 288 288 288 287 287 286 286 286 286 286
291 290 289 291 290 291 291 292 291 290 291 291 293 293 293 294 294 295 294 294 296 297 297 299 296 298 298 298 298 297 295 295 294 294 293 293 292 291 290 291 289 288 288 287 287 287 286 285 285 286 286 285 285 286
291 290 291 291 290 290 291 291 291 292 291 291 291 288 290 292 291 292 293 294 294 295 296 298 298 300 300 295 297 297 294 293 296 295 294 292 290 291 290 289 289 287 287 286 285 286 286 286 287 287 286 285 285 285
291 290 290 290 290 289 288 288 290 289 289 290 288 287 288 289 286 289 291 292 295 297 298 297 296 296 297 297 294 295 295 294 295 296 295 296 291 289 288 288 288 287 286 285 285 286 285 285 285 285 286 286 285 285
291 290 290 290 290 288 288 286 291 289 287 288 287 287 287 287 288 289 289 291 294 296 294 294 295 294 294 293 293 292 293 293 294 295 296 296 294 290 289 288 287 286 286 286 286 286 287 286 286 286 286 286 286 286
290 290 290 290 290 289 289 285 287 289 289 288 287 287 289 290 289 287 288 290 291 292 291 293 293 293 293 292 292 292 293 293 292 292 293 293 293 290 289 288 286 287 287 287 287 288 287 287 286 286 286 286 286 286
290 289 289 289 288 288 286 286 288 285 287 287 287 287 288 288 287 284 289 289 289 288 291 292 292 292 292 292 292 291 292 292 292 292 292 293 292 292 291 289 288 289 289 288 287 287 287 287 287 286 286 285 285 285
289 289 287 288 286 284 281 282 285 285 284 287 287 286 284 285 283 288 289 289 291 289 289 290 291 291 291 289 290 291 292 290 291 292 292 292 292 291 290 290 289 289 289 289 287 287 287 286 286 286 286 286 285 284
289 289 288 287 283 280 278 278 282 285 287 280 286 285 281 282 287 287 287 288 289 289 289 288 288 290 291 292 292 292 292 291 290 290 291 290 290 289 287 287 288 288 288 288 286 286 287 286 285 285 285 284 284 284
287 282 284 279 280 283 279 279 280 282 280 280 281 278 278 283 284 286 284 284 286 286 286 287 287 287 288 289 290 290 290 290 290 289 291 289 289 288 288 287 286 285 287 287 288 287 285 285 285 284 284 284 284 285
287 284 282 284 284 283 283 283 282 282 282 284 282 281 284 286 282 283 283 282 283 284 283 283 285 286 287 287 287 288 289 289 288 288 289 288 287 288 288 287 286 288 288 289 288 287 286 285 284 285 284 284 284 284
285 284 285 284 286 285 286 285 284 284 285 284 283 283 284 282 285 286 283 283 282 281 283 286 286 286 287 287 287 287 286 286 286 285 285 285 285 285 286 286 287 287 287 286 286 286 286 286 285 285 285 284 284 284
284 284 285 284 284 284 284 284 284 284 285 284 284 285 286 285 283 283 282 281 282 282 285 288 286 285 286 286 287 287 286 287 290 291 290 286 285 283 285 285 285 286 286 286 285 286 286 285 285 284 284 283 283 282
282 279 284 283 283 284 284 283 283 282 282 284 284 283 284 284 282 280 280 280 279 279 279 282 284 283 283 285 283 284 285 285 286 287 286 286 283 283 284 285 285 285 285 285 285 284 284 283 283 282 282 281 280 279
274 273 277 281 284 283 280 275 273 278 279 280 280 282 284 282 281 280 278 277 278 280 281 280 281 281 282 282 282 283 283 283 283 284 285 285 285 285 285 285 285 284 284 284 283 283 282 282 281 280 280 279 279 278
270 275 273 279 277 273 272 274 275 275 274 277 281 278 280 280 282 279 276 277 278 276 277 278 280 279 280 280 281 283 284 284 284 285 285 285 284 284 284 283 283 283 283 283 282 281 281 280 279 276 277 277 277 277
265 263 268 267 271 273 269 269 271 273 274 277 278 275 275 277 281 277 276 276 275 274 275 277 280 281 282 283 283 283 283 283 283 283 283 283 283 283 283 283 282 281 281 280 279 279 278 278 277 277 277 277 277 277

GFSWCAN_925_thetae_153.txt.gz
Theta_e
298 298 299 299 299 301 302 303 306 310 310 307 306 306 306 305 305 305 304 302 304 308 307 302 303 305 305 306 309 306 307 306 306 307 306 305 304 304 305 305 307 309 311 311 311 311 314 303 303 305 305 304 304 306
297 298 298 299 298 300 301 302 305 308 310 308 306 306 306 305 305 305 305 301 301 303 306 300 301 300 301 301 305 305 306 306 307 307 305 304 305 302 304 307 302 305 308 307 309 310 303 303 305 303 304 305 305 305
295 297 298 298 298 298 300 301 303 308 311 309 306 305 305 306 305 305 305 302 301 305 307 303 304 299 299 299 299 307 305 304 304 302 305 306 306 304 306 305 304 303 303 304 303 306 305 304 304 304 303 304 303 302
293 295 296 297 298 297 298 299 301 305 310 310 307 306 305 305 305 305 304 303 302 304 308 305 298 300 297 298 299 300 301 300 302 303 306 307 307 303 306 304 303 304 302 304 305 305 305 305 304 304 303 302 301 301
293 293 294 295 297 297 297 297 299 301 306 310 307 306 305 305 306 305 305 305 303 304 308 306 300 297 297 298 299 300 301 303 304 306 307 307 305 302 303 302 304 302 305 306 310 308 307 306 303 302 303 302 301 300
293 293 293 294 296 297 297 297 297 300 302 306 306 305 305 305 306 304 306 305 305 301 306 309 299 299 298 299 300 300 301 303 304 306 306 304 300 303 307 308 308 305 304 305 306 302 303 302 301 300 302 301 300 300
293 292 293 293 294 296 296 296 296 297 299 302 305 305 305 306 306 305 306 303 303 302 305 308 306 299 298 299 299 301 300 303 304 305 305 305 304 303 306 308 309 306 304 303 302 302 303 301 303 299 300 299 298 298
292 293 292 292 293 294 296 296 296 296 298 300 303 305 305 305 305 303 301 301 301 301 301 309 305 301 298 302 303 299 303 303 303 305 303 304 303 304 307 307 307 304 302 302 301 300 300 299 298 298 298 297 297 297
292 292 292 292 292 293 294 295 296 296 296 300 303 305 304 304 304 302 301 300 300 301 307 305 308 308 298 300 301 300 302 305 300 304 304 303 306 308 308 307 307 306 303 303 300 298 297 299 298 296 296 297 296 295
291 292 292 291 291 292 293 295 296 295 297 300 304 305 305 303 304 300 301 301 301 303 301 305 303 304 301 301 302 303 301 305 306 304 300 303 306 306 306 305 305 303 302 299 298 297 297 298 297 296 296 296 296 295
291 292 292 292 291 291 292 294 295 295 297 298 296 297 299 300 303 303 300 301 301 303 302 304 303 301 298 304 304 301 304 303 306 305 304 307 305 305 302 301 300 302 301 299 300 300 298 299 298 296 296 295 295 294
291 292 292 292 290 291 291 294 295 296 297 296 295 295 298 299 299 302 303 302 303 307 301 301 300 300 298 298 302 299 303 301 307 299 303 306 306 303 300 299 298 299 300 299 299 299 298 298 297 296 296 294 293 293
291 292 292 291 290 291 293 293 294 296 296 295 295 295 297 298 303 306 306 306 307 302 298 298 300 298 296 297 300 301 303 305 299 302 305 305 303 299 298 297 297 296 296 296 295 295 295 294 295 294 293 292 291 290
292 291 292 291 291 291 292 293 293 295 296 298 299 302 301 303 303 306 306 305 297 300 300 300 298 300 298 300 300 305 300 299 303 304 305 308 300 297 298 296 296 296 295 294 294 294 293 292 292 292 292 291 290 290
292 291 292 292 291 291 292 292 293 294 294 297 299 300 301 298 299 296 295 296 295 298 298 298 299 300 300 300 300 299 299 303 303 306 307 301 296 295 296 295 296 296 296 295 293 292 291 290 290 290 290 290 290 289
292 291 292 292 291 291 291 292 293 294 293 295 297 298 298 299 301 299 297 298 296 297 297 299 301 303 304 303 301 303 304 305 307 303 301 297 296 295 295 294 294 295 295 294 292 292 291 290 290 290 289 289 289 288
291 292 291 291 292 291 291 292 292 291 292 294 297 295 297 298 298 298 297 297 293 298 302 302 303 306 299 303 303 301 303 304 301 300 298 296 295 295 294 294 292 292 292 292 291 291 290 290 289 288 288 288 288 287
292 291 289 292 291 291 290 291 291 290 291 293 295 295 294 295 296 297 296 295 297 298 299 299 298 300 302 302 302 300 298 299 297 297 297 296 295 294 292 294 292 291 291 290 290 289 288 287 288 288 289 288 287 286
291 290 291 291 289 290 292 291 291 292 291 292 292 292 292 293 293 293 295 295 296 296 297 298 299 301 301 299 300 300 298 297 297 296 295 295 294 293 291 290 291 290 290 288 288 288 288 288 289 289 288 286 286 286
290 290 291 290 290 289 289 290 290 291 291 292 290 289 290 291 289 291 294 295 296 297 298 297 297 298 299 299 298 299 298 297 296 295 294 295 295 293 292 291 291 290 289 288 288 288 287 287 287 287 287 286 286 286
291 291 290 290 289 289 290 290 291 291 290 289 288 288 290 289 291 292 292 292 293 294 296 296 297 297 296 295 295 295 295 294 294 294 294 295 295 294 293 291 290 289 289 289 288 288 288 288 287 287 286 286 286 287
290 290 290 289 289 288 289 288 291 291 290 290 288 288 289 292 292 290 290 291 293 295 294 293 293 293 293 293 293 293 293 293 293 293 294 294 294 294 293 292 290 290 289 290 289 289 288 288 287 287 287 286 286 286
290 289 289 289 289 289 289 287 290 289 290 290 289 289 289 288 289 285 288 290 292 292 292 293 292 292 292 292 292 292 292 292 292 293 293 293 293 294 293 293 291 291 291 290 289 289 288 288 288 287 286 286 286 286
289 289 288 288 288 287 286 288 289 289 287 288 288 288 288 288 286 287 289 291 293 291 291 291 291 292 292 291 291 292 292 291 291 292 292 293 293 293 293 292 292 291 291 292 290 288 288 287 288 288 287 286 285 285
286 286 289 286 287 286 286 286 286 287 288 288 288 288 287 284 288 289 289 292 293 291 291 289 289 290 291 291 291 292 292 291 292 291 292 292 292 292 292 291 291 291 290 289 288 288 287 286 287 286 286 285 285 285
288 287 288 289 286 286 286 286 285 286 288 285 285 283 282 286 287 288 289 289 289 288 287 287 287 287 288 289 290 290 290 290 290 291 291 291 290 291 292 292 290 289 289 288 288 287 287 286 286 285 285 285 285 285
289 287 286 285 286 285 285 285 284 285 284 284 286 284 286 288 287 288 287 286 286 285 283 283 284 285 287 288 288 288 287 287 288 289 288 287 287 287 288 289 289 289 288 287 287 287 287 286 285 285 284 285 285 284
287 286 288 287 288 287 288 286 286 285 286 287 285 285 286 286 288 288 286 284 282 281 283 286 285 285 285 286 287 286 286 285 286 285 285 284 284 284 285 287 286 287 288 288 287 286 286 286 286 285 285 285 284 283
287 285 286 286 286 286 287 287 287 287 286 286 287 287 287 286 285 284 283 280 281 281 285 285 288 285 286 285 285 284 286 286 289 289 287 287 287 284 284 284 285 285 285 285 285 286 286 285 285 284 284 283 283 282
283 280 285 285 285 286 287 286 286 284 284 285 285 285 285 285 283 280 279 279 278 279 280 281 282 282 285 286 285 283 282 284 288 289 289 287 284 282 284 285 285 285 285 285 284 284 283 283 283 283 282 281 281 280
277 279 280 283 286 285 280 277 277 278 280 282 283 284 285 284 282 279 277 277 277 279 280 280 281 280 281 282 283 285 283 282 283 284 284 284 284 284 284 284 284 284 284 284 284 283 283 282 281 281 280 279 279 278
277 278 279 280 281 277 275 277 278 279 280 280 283 281 282 283 285 280 276 276 277 276 277 277 278 278 279 279 281 282 283 283 283 284 284 284 283 283 283 283 283 283 283 282 281 281 280 279 278 278 277 277 277 277
273 272 272 274 278 279 276 274 277 278 278 280 280 277 278 279 282 277 276 275 274 273 274 276 277 279 280 282 282 283 283 283 284 284 283 283 283 282 282 281 281 281 280 280 279 278 278 277 277 277 276 276 276 276

GFSWCAN_925_thetae_156.txt.gz
Theta_e
295 298 298 299 299 299 301 302 303 304 309 309 307 307 306 306 305 305 305 304 304 307 306 303 304 305 305 305 307 305 306 305 305 307 305 305 303 303 303 305 306 308 308 308 308 310 308 303 302 305 303 303 304 305
295 296 298 298 299 298 299 301 302 303 306 310 308 306 306 306 305 305 306 304 302 302 305 302 302 301 301 301 303 304 305 305 306 306 304 303 303 302 302 304 301 302 305 305 307 308 302 301 304 302 302 303 303 304
293 294 296 297 298 298 298 299 300 302 305 310 309 307 306 306 305 305 305 303 301 304 305 303 302 300 300 300 301 306 304 303 304 301 304 304 305 303 305 304 303 302 301 301 300 304 303 301 302 302 302 302 301 302
293 293 293 295 297 298 298 298 299 301 305 309 310 307 306 306 306 305 305 305 303 304 306 303 299 300 299 299 300 301 301 300 301 301 304 305 305 302 304 302 302 303 301 301 302 302 304 303 303 300 300 299 299 300
292 293 293 294 295 297 297 297 298 299 302 307 310 308 306 306 306 305 304 305 304 304 307 305 300 298 298 299 299 300 301 302 302 304 304 305 303 301 300 300 301 300 302 304 305 303 303 303 301 301 301 300 299 298
293 293 293 293 293 295 297 297 297 298 300 304 309 308 306 305 306 305 305 305 305 303 304 307 298 299 298 299 300 300 301 301 302 304 304 303 300 301 304 305 305 300 301 302 303 301 301 300 299 300 301 300 299 298
293 293 292 293 293 294 295 297 297 297 298 301 308 307 306 305 306 305 305 303 304 304 304 305 303 298 299 299 299 299 300 301 301 303 302 303 302 300 303 305 305 303 301 302 299 299 301 300 300 298 298 297 299 298
292 292 292 292 292 293 294 295 296 296 296 299 303 306 306 306 305 303 302 300 302 302 301 303 302 300 298 301 300 298 301 300 301 302 301 302 301 301 304 305 304 302 302 301 299 299 298 296 296 296 296 295 295 294
291 292 292 292 292 292 292 294 295 296 296 298 301 305 304 304 304 302 302 300 300 302 302 301 303 304 297 300 299 298 299 301 297 301 302 301 303 303 304 304 304 302 301 301 297 296 296 296 295 295 295 295 294 293
291 291 292 292 291 291 292 293 295 296 296 299 303 303 303 303 304 301 301 301 300 301 300 304 300 300 299 300 301 300 299 302 299 301 297 300 303 304 303 303 303 302 299 297 296 296 296 296 296 295 295 294 294 292
291 291 292 292 291 291 291 293 295 296 298 298 296 296 299 300 303 301 299 301 300 302 302 302 300 299 297 302 302 300 300 300 300 300 301 303 305 303 300 299 297 299 297 297 299 299 296 296 295 294 294 294 293 292
290 290 292 292 291 291 293 293 295 296 296 295 294 296 299 299 297 301 302 301 302 305 302 301 299 299 297 297 301 299 302 299 301 297 299 303 304 299 299 298 297 296 298 297 298 297 296 296 295 294 293 293 293 292
291 291 292 292 290 291 293 293 294 295 296 294 294 295 297 297 303 306 305 305 304 302 298 297 299 297 296 298 300 301 303 303 297 300 300 303 300 296 296 296 296 294 295 295 295 295 295 295 296 294 292 293 292 291
291 292 292 292 291 291 292 293 293 295 296 297 298 300 301 301 302 302 302 303 297 299 299 299 298 300 297 300 300 304 301 298 299 298 301 302 297 294 294 295 295 295 293 292 292 293 292 292 292 293 292 292 290 289
291 291 292 292 292 291 291 291 294 294 294 297 297 301 301 298 297 296 295 297 295 298 297 298 298 299 300 300 301 299 299 301 299 300 300 297 295 294 293 294 294 295 294 293 292 288 289 290 290 290 291 290 290 290
292 291 292 292 291 291 289 292 293 294 293 295 296 298 298 298 299 298 297 297 294 297 297 298 300 302 302 302 300 302 301 298 298 296 293 294 294 293 293 293 293 293 293 293 292 292 291 289 289 289 290 290 290 289
291 292 291 291 292 291 290 292 291 290 292 293 296 294 296 297 298 297 295 295 293 297 301 301 303 304 298 301 302 298 299 298 295 293 291 293 292 292 291 292 292 291 292 292 291 291 290 290 290 289 286 288 289 289
292 291 290 291 291 291 290 291 290 290 290 291 295 292 293 294 296 296 294 295 296 297 298 298 297 300 303 303 299 296 294 293 292 292 292 292 292 291 291 291 292 291 291 290 290 290 289 289 287 287 288 288 288 287
291 290 291 291 290 290 287 289 290 289 287 289 289 289 290 291 291 292 295 295 295 295 295 297 299 300 300 297 296 294 292 291 293 293 292 292 293 292 291 290 290 290 290 289 289 288 288 289 288 288 289 288 287 286
290 290 291 290 289 289 288 289 289 288 286 288 288 289 288 288 285 287 290 294 295 295 295 295 292 296 298 298 295 296 295 294 293 291 290 290 293 293 292 292 291 291 290 289 288 289 288 287 288 288 289 288 286 286
290 291 290 290 289 288 285 289 289 290 289 288 288 287 288 287 286 285 285 291 292 292 288 292 295 294 294 293 294 295 293 293 292 291 291 291 292 293 293 293 292 290 289 288 287 287 289 287 288 288 288 288 287 287
290 289 289 288 288 287 284 288 290 290 288 288 288 287 288 286 283 285 287 290 285 287 290 291 291 291 290 290 290 292 292 292 292 292 293 292 290 288 288 293 290 288 289 289 289 288 288 289 288 288 288 288 287 287
289 289 289 288 287 285 283 287 288 287 285 285 287 286 287 288 288 285 287 289 286 286 290 289 290 291 290 291 291 291 292 291 288 289 291 291 292 292 293 293 293 291 289 291 292 290 290 289 288 288 288 287 287 286
289 289 287 282 280 283 286 287 285 287 287 288 287 283 284 285 286 287 288 285 288 286 287 287 288 287 288 288 285 288 290 291 290 290 291 290 287 290 292 292 292 292 292 292 292 292 291 289 288 288 287 286 286 285
286 286 282 283 287 282 282 283 283 284 281 283 287 280 281 283 286 287 282 281 284 285 285 283 283 285 286 287 286 288 290 290 288 287 290 291 290 290 291 292 292 292 291 291 290 290 289 288 287 287 287 285 286 286
281 281 285 283 281 282 281 279 280 280 283 279 279 276 276 283 281 280 281 282 283 283 283 283 284 285 285 285 286 287 288 289 288 287 290 290 291 289 284 283 283 289 290 289 289 289 288 287 286 286 286 288 287 286
287 287 285 285 286 285 284 284 283 281 278 280 279 277 280 282 278 281 282 279 281 284 282 283 283 284 284 285 286 287 288 287 286 288 288 287 286 287 287 286 284 288 287 287 287 288 287 286 286 286 286 285 285 285
287 287 287 286 287 287 287 284 283 282 282 285 284 280 279 280 281 282 281 283 281 281 282 284 286 285 285 284 285 286 286 284 285 285 284 283 283 284 285 286 287 286 286 287 289 288 287 287 286 285 285 285 284 284
287 285 286 286 286 286 286 285 284 285 286 284 283 284 284 282 281 280 282 280 280 281 281 282 282 285 286 285 283 285 286 287 287 282 282 282 280 283 284 284 285 285 285 285 285 285 285 285 285 285 284 284 283 282
282 278 283 283 283 285 285 284 285 283 284 285 284 283 283 282 281 279 279 279 277 277 279 280 281 281 283 284 284 282 283 285 285 286 284 281 280 282 284 284 284 284 284 285 284 284 284 283 283 282 281 281 280 279
276 275 276 279 281 281 278 277 277 279 280 281 282 282 283 282 280 278 277 276 277 278 279 279 280 278 279 279 279 280 280 282 282 283 283 283 283 283 283 283 283 283 283 282 282 281 281 280 280 279 279 278 278 277
273 273 273 276 275 271 270 272 275 277 279 280 282 281 282 282 282 277 276 276 276 275 276 275 275 276 278 280 281 282 282 282 282 282 283 283 282 282 281 281 281 281 281 280 280 279 279 278 278 278 277 277 277 276
268 267 267 269 270 272 270 270 272 273 275 278 279 277 278 279 280 276 276 275 274 274 274 275 276 277 279 280 281 282 282 282 282 282 282 281 280 280 280 280 280 279 279 279 278 278 277 277 277 277 276 276 275 275

GFSWCAN_925_thetae_159.txt.gz
Theta_e
294 295 297 298 299 299 299 300 302 303 304 309 308 307 307 306 305 305 305 304 303 303 304 302 302 304 303 302 303 303 303 302 302 305 304 303 302 301 300 301 305 306 306 306 306 308 307 302 302 304 302 302 304 304
294 294 295 297 298 298 299 299 300 301 303 306 309 308 306 306 305 305 305 304 303 301 302 303 302 302 302 301 302 301 303 302 302 303 302 301 302 300 300 302 301 302 304 305 305 306 302 300 302 301 300 302 302 302
294 293 293 294 296 298 298 298 299 300 302 304 307 308 307 307 306 305 305 303 301 302 302 302 302 301 300 300 301 303 300 301 301 299 301 302 303 301 303 302 303 301 298 301 300 301 300 299 300 300 301 300 300 300
293 293 293 293 294 296 298 298 298 299 300 304 305 309 307 306 306 305 305 304 303 302 304 303 299 299 299 299 300 301 300 299 298 298 301 302 304 301 302 301 301 302 300 300 299 299 299 300 298 299 299 298 299 300
292 293 293 293 293 294 296 297 298 298 299 301 305 309 308 306 306 305 305 305 304 303 305 304 299 298 298 299 299 300 300 299 299 300 301 302 300 300 299 299 300 299 301 303 304 302 301 302 300 298 298 298 297 298
291 293 293 292 293 293 294 296 297 297 298 300 303 308 308 306 306 304 304 304 305 303 302 304 298 298 298 299 299 299 299 298 299 300 301 300 298 299 302 303 303 299 298 300 303 301 299 298 298 299 298 297 296 297
291 292 293 292 292 293 293 294 295 296 297 299 302 307 308 306 306 305 305 303 305 304 302 302 300 297 299 299 297 297 298 298 299 300 300 300 300 299 301 304 304 302 299 299 298 299 300 299 300 298 297 297 298 296
291 292 293 292 292 292 292 293 294 296 296 297 301 307 307 306 305 303 302 302 304 302 301 303 303 298 298 299 299 296 298 297 298 299 299 300 299 298 303 303 302 302 301 299 297 298 298 295 295 295 295 294 294 295
290 291 292 292 292 292 292 292 294 296 296 297 301 307 305 305 303 301 303 301 302 302 301 301 301 300 297 299 297 297 296 298 295 299 299 299 300 302 303 302 302 302 301 301 296 295 295 296 295 294 294 293 293 293
290 291 291 292 292 291 291 292 294 295 296 297 300 301 302 302 303 301 302 302 300 301 299 301 296 300 298 298 299 297 296 299 296 299 296 299 301 302 301 300 300 301 299 295 296 297 296 296 295 294 295 294 294 293
291 291 290 292 292 291 292 293 294 296 297 296 296 297 299 301 302 300 299 300 299 302 301 301 297 298 297 301 301 298 296 297 297 298 299 300 304 302 297 297 296 295 296 296 297 297 296 296 295 294 294 293 293 292
290 290 290 292 292 291 292 293 295 296 295 294 294 297 298 298 296 301 301 301 302 303 301 302 299 297 296 297 299 298 300 297 298 295 298 300 301 297 294 296 295 294 296 296 297 297 295 295 294 294 293 292 292 292
291 291 291 292 291 291 292 293 294 295 295 294 293 295 297 297 302 304 304 304 304 301 297 297 299 297 296 298 299 301 303 303 295 299 299 298 298 295 294 294 295 293 295 295 295 295 296 294 294 294 292 293 292 291
291 291 292 292 291 291 292 292 294 295 295 296 297 298 300 299 301 299 301 302 297 298 298 298 298 300 297 301 300 303 301 298 297 300 298 298 297 295 293 293 294 295 293 292 292 293 293 292 293 293 294 293 291 289
291 292 292 292 291 290 291 291 294 294 294 296 296 299 299 297 296 293 292 296 295 298 297 298 298 298 299 300 299 298 297 295 296 296 297 296 294 293 293 293 294 295 293 293 291 289 289 290 291 291 292 292 291 290
291 291 291 291 290 290 289 291 293 294 292 292 294 297 297 297 297 297 296 296 294 296 297 298 299 301 299 299 297 297 298 296 295 294 294 294 293 292 291 292 292 293 293 293 292 292 291 290 290 290 290 290 290 290
291 290 291 291 290 290 290 291 290 288 287 288 291 294 295 296 296 295 295 294 294 298 301 300 300 300 298 298 299 297 297 295 293 292 291 292 292 291 291 291 291 291 292 291 291 291 290 290 290 288 286 288 289 289
291 290 290 292 290 290 289 290 289 287 285 284 293 290 292 293 296 294 294 295 296 297 296 293 294 296 298 299 299 294 292 290 289 290 291 291 292 291 290 290 290 290 290 290 290 289 289 289 287 287 288 288 288 288
290 290 291 292 290 289 281 288 289 282 280 283 286 286 288 290 288 289 294 295 293 293 295 296 297 295 298 294 294 292 290 290 293 292 291 289 292 292 291 291 290 290 289 289 289 289 289 289 289 289 288 287 287 287
290 290 291 289 289 287 287 288 289 282 281 288 288 288 287 287 286 284 289 293 293 292 295 291 294 297 298 297 295 295 294 292 292 291 289 289 291 292 292 292 291 291 290 289 289 289 288 288 288 288 288 288 287 286
291 291 290 289 288 287 281 288 288 289 288 285 286 286 287 287 281 281 285 290 286 282 286 291 293 293 292 294 293 293 291 291 290 290 290 289 290 292 292 293 292 291 289 289 288 288 290 287 289 289 288 288 288 288
290 290 289 288 285 281 281 287 288 288 288 287 287 286 284 279 288 284 287 288 281 284 287 290 290 289 289 288 289 290 290 290 290 290 291 291 289 286 288 292 291 288 289 290 290 289 289 290 290 289 288 288 288 288
289 289 288 286 280 278 284 286 286 286 285 284 287 283 276 286 286 285 286 287 283 283 287 288 288 289 288 289 289 289 290 289 287 287 288 289 290 290 290 291 291 290 288 291 292 291 291 292 290 289 288 287 287 287
289 287 282 278 274 281 285 286 281 287 286 287 284 278 281 286 285 285 285 281 284 284 284 284 284 284 285 286 283 286 288 289 288 289 289 288 284 287 289 290 290 290 291 291 291 291 291 291 291 289 288 287 286 286
287 285 280 282 282 276 277 278 277 283 276 283 287 276 281 281 285 286 283 278 279 283 282 282 281 282 283 284 284 285 287 287 286 283 288 289 288 288 289 290 290 290 291 290 290 290 290 290 290 288 287 286 285 285
281 281 284 276 275 278 277 279 278 277 281 278 279 273 274 284 276 277 277 277 281 280 280 281 284 283 285 285 284 285 286 287 288 286 287 288 288 287 280 280 281 288 289 287 288 288 288 288 287 286 286 286 286 287
280 281 281 285 285 284 283 281 280 277 275 277 275 276 275 278 275 278 279 277 280 281 280 280 281 282 283 284 284 284 285 286 286 286 285 284 284 285 286 285 284 286 286 286 287 287 287 286 285 285 285 285 286 286
282 284 285 284 286 284 283 281 279 277 276 280 280 277 277 278 280 278 278 281 280 280 281 283 284 283 284 284 282 284 284 284 284 283 283 283 284 284 285 286 286 286 287 288 288 288 287 287 286 285 284 284 284 284
286 284 285 285 285 285 284 283 282 281 283 281 281 280 281 280 277 278 280 279 279 279 280 280 281 284 285 284 283 284 284 284 284 282 281 279 279 282 284 285 285 285 286 286 285 285 285 285 284 284 284 283 282 282
280 278 282 283 283 284 282 281 281 280 282 283 283 281 282 281 278 277 277 277 277 277 278 280 278 280 280 282 282 281 282 285 285 284 282 280 278 280 282 283 283 283 283 284 283 283 283 283 282 282 281 281 280 279
274 272 274 275 278 277 276 276 276 280 279 279 279 280 282 280 278 276 276 275 276 277 277 277 277 278 278 279 279 280 280 281 281 282 282 281 281 282 282 282 282 282 282 282 281 281 280 280 279 279 278 278 277 277
270 272 271 276 273 268 266 267 270 273 277 278 278 276 279 281 280 276 275 275 275 274 276 275 275 276 279 280 280 281 281 281 281 281 281 281 280 280 280 280 280 280 280 279 279 278 278 277 277 276 276 276 275 275
263 263 262 265 268 270 267 267 267 268 271 275 277 276 277 278 278 276 275 275 274 274 274 275 275 277 278 280 281 281 281 281 281 281 280 280 279 279 279 279 278 278 278 278 277 277 276 276 276 275 275 274 274 274